» Menu

» Login

» OB/Site News

Deathmatch is Calling!
Comments: 12 - Views: 2522 - Votes: 0
Omerta News Integration
Comments: 53 - Views: 20044 - Votes: 0
War rating
Comments: 7 - Views: 14725 - Votes: 4
» Articles
Date Comments Rating

General Comments & Major Rumors
Comments: 50,310 - Views: 4,572,889 - Votes: 78
06-01 Reset announcement, bugfixes & updates
Comments: 24 - Views: 995 - Votes: 0
18-12 Pow pow pow
Comments: 155 - Views: 4,788 - Votes: 7
17-12 Marazzino under attack
Comments: 39 - Views: 1,552 - Votes: 0
14-12 Plating ends, time for a massacre!!
Comments: 74 - Views: 4,258 - Votes: 0
14-12 The pre-plating morning
Comments: 1 - Views: 414 - Votes: 0
14-12 The pre-plating night
Comments: 4 - Views: 527 - Votes: 0
12-12 Another Outfit article...
Comments: 20 - Views: 882 - Votes: 0
07-12 Another one bites the dust
Comments: 57 - Views: 2,431 - Votes: 0
07-12 Hijack attempts and local wars
Comments: 2 - Views: 545 - Votes: 0
go back
go forward
» Barafranca News

» Mafia News

» Online last 15 minutes

Guests: 121
Total members: 3243
Online: 0 (0%)
Members:
» Targets?
Killskill?
NameRankLast Online
SennaEmpty Suit10/01/2020 12:53:06 OT (7D 13H 43M ago)
TratturiEmpty Suit10/01/2020 13:00:05 OT (7D 13H 36M ago)
ChakongaEmpty Suit10/01/2020 13:00:05 OT (7D 13H 36M ago)
YeccoEmpty Suit10/01/2020 14:15:04 OT (7D 12H 22M ago)
AnonEmpty Suit10/01/2020 16:02:04 OT (7D 10H 35M ago)
LaagboekerEmpty Suit10/01/2020 16:23:05 OT (7D 10H 13M ago)
SophiaEmpty Suit10/01/2020 16:52:05 OT (7D 9H 44M ago)
EomerEmpty Suit10/01/2020 16:59:05 OT (7D 9H 37M ago)
DentalEmpty Suit10/01/2020 17:32:05 OT (7D 9H 4M ago)
PeidasEmpty Suit10/01/2020 18:09:06 OT (7D 8H 27M ago)
CofiEmpty Suit10/01/2020 18:27:06 OT (7D 8H 9M ago)
WesleyEmpty Suit10/01/2020 18:34:05 OT (7D 8H 2M ago)
KargaEmpty Suit10/01/2020 18:47:06 OT (7D 7H 49M ago)
GroakerEmpty Suit10/01/2020 19:15:05 OT (7D 7H 21M ago)
HollowbladeEmpty Suit10/01/2020 19:41:05 OT (7D 6H 55M ago)
ManatteeEmpty Suit10/01/2020 19:41:05 OT (7D 6H 55M ago)
KippenneukerEmpty Suit10/01/2020 20:21:03 OT (7D 6H 16M ago)
BiaEmpty Suit10/01/2020 20:36:05 OT (7D 6H 0M ago)
ZerodigitEmpty Suit10/01/2020 20:36:05 OT (7D 6H 0M ago)
ElkupasEmpty Suit10/01/2020 20:46:03 OT (7D 5H 51M ago)
TingusEmpty Suit10/01/2020 21:09:05 OT (7D 5H 27M ago)
SplendidEmpty Suit10/01/2020 21:09:05 OT (7D 5H 27M ago)
GuzelEmpty Suit10/01/2020 21:09:05 OT (7D 5H 27M ago)
ProvenioEmpty Suit10/01/2020 21:22:03 OT (7D 5H 15M ago)
ItaliaEmpty Suit10/01/2020 22:01:03 OT (7D 4H 36M ago)
WadewilsonEmpty Suit10/01/2020 22:31:05 OT (7D 4H 5M ago)
NvxEmpty Suit10/01/2020 23:00:06 OT (7D 3H 36M ago)
RainoEmpty Suit11/01/2020 00:51:03 OT (7D 1H 46M ago)
KyleEmpty Suit11/01/2020 03:36:04 OT (6D 23H 1M ago)
GambitEmpty Suit11/01/2020 03:47:05 OT (6D 22H 49M ago)
SxaEmpty Suit11/01/2020 06:41:02 OT (6D 19H 56M ago)
PrizonEmpty Suit11/01/2020 08:09:05 OT (6D 18H 27M ago)
PaxeraEmpty Suit11/01/2020 09:13:05 OT (6D 17H 23M ago)
BobcrackEmpty Suit11/01/2020 09:44:03 OT (6D 16H 53M ago)
CrankEmpty Suit11/01/2020 09:44:03 OT (6D 16H 53M ago)
StokeziEmpty Suit11/01/2020 10:59:04 OT (6D 15H 38M ago)
SiberleeEmpty Suit11/01/2020 11:27:03 OT (6D 15H 10M ago)
MisaEmpty Suit11/01/2020 12:43:09 OT (6D 13H 53M ago)
SadfadghEmpty Suit11/01/2020 13:00:05 OT (6D 13H 36M ago)
JlkhnEmpty Suit11/01/2020 13:33:03 OT (6D 13H 4M ago)
AntebellaEmpty Suit11/01/2020 14:57:04 OT (6D 11H 40M ago)
StardustEmpty Suit11/01/2020 15:04:04 OT (6D 11H 33M ago)
OutgamerEmpty Suit11/01/2020 16:46:05 OT (6D 9H 50M ago)
RosalindeEmpty Suit11/01/2020 16:58:05 OT (6D 9H 38M ago)
OnurEmpty Suit11/01/2020 19:41:05 OT (6D 6H 55M ago)
KatqEmpty Suit11/01/2020 19:52:07 OT (6D 6H 44M ago)
JorjaodjeEmpty Suit11/01/2020 19:52:07 OT (6D 6H 44M ago)
ArditoEmpty Suit11/01/2020 20:36:04 OT (6D 6H 1M ago)
SadsadEmpty Suit11/01/2020 20:56:03 OT (6D 5H 41M ago)
PyscoEmpty Suit11/01/2020 21:18:03 OT (6D 5H 19M ago)
DejavuEmpty Suit11/01/2020 21:18:03 OT (6D 5H 19M ago)
QuercuxEmpty Suit11/01/2020 21:58:05 OT (6D 4H 38M ago)
JoeprofaciEmpty Suit11/01/2020 21:58:05 OT (6D 4H 38M ago)
ZoeEmpty Suit11/01/2020 22:20:03 OT (6D 4H 17M ago)
TaraldurEmpty Suit11/01/2020 22:20:03 OT (6D 4H 17M ago)
JotaEmpty Suit11/01/2020 23:25:04 OT (6D 3H 12M ago)
NatEmpty Suit11/01/2020 23:54:03 OT (6D 2H 43M ago)
RichardEmpty Suit12/01/2020 06:41:05 OT (5D 19H 55M ago)
SasquatchEmpty Suit12/01/2020 06:54:05 OT (5D 19H 42M ago)
JhonnybgoodEmpty Suit12/01/2020 06:59:05 OT (5D 19H 37M ago)
TezcannEmpty Suit12/01/2020 07:38:03 OT (5D 18H 59M ago)
TeknoEmpty Suit12/01/2020 10:03:05 OT (5D 16H 33M ago)
LieblichEmpty Suit12/01/2020 10:48:05 OT (5D 15H 48M ago)
KkhoertjeEmpty Suit12/01/2020 11:29:05 OT (5D 15H 7M ago)
ParyosaEmpty Suit12/01/2020 12:00:05 OT (5D 14H 36M ago)
RafetcakrEmpty Suit12/01/2020 12:19:06 OT (5D 14H 17M ago)
NgobeEmpty Suit12/01/2020 13:39:03 OT (5D 12H 58M ago)
SimpleeEmpty Suit12/01/2020 14:46:02 OT (5D 11H 51M ago)
ToniEmpty Suit12/01/2020 15:25:04 OT (5D 11H 12M ago)
BecrazyEmpty Suit12/01/2020 15:32:04 OT (5D 11H 5M ago)
JonicorleoneEmpty Suit12/01/2020 15:46:05 OT (5D 10H 50M ago)
ShadowEmpty Suit12/01/2020 16:38:06 OT (5D 9H 58M ago)
ExeviumEmpty Suit12/01/2020 16:53:05 OT (5D 9H 43M ago)
HdfhdfEmpty Suit12/01/2020 18:11:05 OT (5D 8H 25M ago)
LeningradEmpty Suit12/01/2020 18:41:05 OT (5D 7H 55M ago)
NarenciyeEmpty Suit12/01/2020 19:10:06 OT (5D 7H 26M ago)
VpnEmpty Suit12/01/2020 19:31:05 OT (5D 7H 5M ago)
ZiganaEmpty Suit12/01/2020 20:30:06 OT (5D 6H 6M ago)
FenerbahceEmpty Suit12/01/2020 20:59:05 OT (5D 5H 37M ago)
IlucaEmpty Suit12/01/2020 21:05:05 OT (5D 5H 31M ago)
SikyeoruspuEmpty Suit12/01/2020 21:42:06 OT (5D 4H 54M ago)
DiogyEmpty Suit12/01/2020 21:48:03 OT (5D 4H 49M ago)
ShenkerEmpty Suit12/01/2020 22:49:05 OT (5D 3H 47M ago)
AlperEmpty Suit12/01/2020 23:29:05 OT (5D 3H 7M ago)
CiwoxEmpty Suit13/01/2020 00:05:06 OT (5D 2H 31M ago)
YeahiknoEmpty Suit13/01/2020 00:11:03 OT (5D 2H 26M ago)
VinjurEmpty Suit13/01/2020 00:17:03 OT (5D 2H 20M ago)
LorelaiEmpty Suit13/01/2020 02:55:05 OT (4D 23H 41M ago)
LanarhodesEmpty Suit13/01/2020 07:10:05 OT (4D 19H 26M ago)
GodaddyEmpty Suit13/01/2020 07:31:05 OT (4D 19H 5M ago)
IpekEmpty Suit13/01/2020 09:03:05 OT (4D 17H 33M ago)
ZrEmpty Suit13/01/2020 09:55:05 OT (4D 16H 41M ago)
BatemanEmpty Suit13/01/2020 10:39:05 OT (4D 15H 57M ago)
EspinosaEmpty Suit13/01/2020 10:53:05 OT (4D 15H 43M ago)
OmerdaEmpty Suit13/01/2020 11:05:05 OT (4D 15H 31M ago)
WightEmpty Suit13/01/2020 11:05:05 OT (4D 15H 31M ago)
ZhoricaEmpty Suit13/01/2020 12:17:05 OT (4D 14H 19M ago)
PitchEmpty Suit13/01/2020 12:48:05 OT (4D 13H 48M ago)
JexEmpty Suit13/01/2020 14:34:05 OT (4D 12H 2M ago)
MymoonEmpty Suit13/01/2020 14:45:05 OT (4D 11H 51M ago)
CosanostraEmpty Suit13/01/2020 14:49:05 OT (4D 11H 47M ago)
JborgesEmpty Suit13/01/2020 14:54:05 OT (4D 11H 42M ago)
LezardsEmpty Suit13/01/2020 15:28:02 OT (4D 11H 9M ago)
BiatchEmpty Suit13/01/2020 15:28:02 OT (4D 11H 9M ago)
SrpskaspartaEmpty Suit13/01/2020 15:52:05 OT (4D 10H 44M ago)
FdgghEmpty Suit13/01/2020 17:41:05 OT (4D 8H 55M ago)
RosaEmpty Suit13/01/2020 19:31:05 OT (4D 7H 5M ago)
PapadcsEmpty Suit13/01/2020 20:03:05 OT (4D 6H 33M ago)
BrazEmpty Suit13/01/2020 20:38:05 OT (4D 5H 58M ago)
MaxEmpty Suit13/01/2020 20:45:06 OT (4D 5H 51M ago)
HiEmpty Suit13/01/2020 21:17:02 OT (4D 5H 20M ago)
NearchusEmpty Suit13/01/2020 21:23:05 OT (4D 5H 13M ago)
GanjaEmpty Suit13/01/2020 21:52:06 OT (4D 4H 44M ago)
RoykilvaniEmpty Suit13/01/2020 22:34:03 OT (4D 4H 3M ago)
ErdemoEmpty Suit13/01/2020 22:55:04 OT (4D 3H 42M ago)
ScarfaceEmpty Suit13/01/2020 23:01:03 OT (4D 3H 36M ago)
SotrueEmpty Suit14/01/2020 02:55:04 OT (3D 23H 42M ago)
SilasEmpty Suit14/01/2020 09:18:05 OT (3D 17H 18M ago)
ZippoEmpty Suit14/01/2020 09:33:05 OT (3D 17H 3M ago)
MellowEmpty Suit14/01/2020 10:31:03 OT (3D 16H 6M ago)
BatmanEmpty Suit14/01/2020 11:30:05 OT (3D 15H 6M ago)
SdfsdgEmpty Suit14/01/2020 11:56:04 OT (3D 14H 41M ago)
TyrionEmpty Suit14/01/2020 12:26:05 OT (3D 14H 10M ago)
DestanEmpty Suit14/01/2020 13:40:05 OT (3D 12H 56M ago)
ThunderaceEmpty Suit14/01/2020 13:52:05 OT (3D 12H 44M ago)
KolpaEmpty Suit14/01/2020 14:17:05 OT (3D 12H 19M ago)
SuperdogEmpty Suit14/01/2020 14:52:03 OT (3D 11H 45M ago)
DeadeEmpty Suit14/01/2020 15:12:12 OT (3D 11H 24M ago)
ShokataEmpty Suit14/01/2020 16:14:03 OT (3D 10H 23M ago)
CanknlskEmpty Suit14/01/2020 16:21:05 OT (3D 10H 15M ago)
AlmondEmpty Suit14/01/2020 16:43:03 OT (3D 9H 54M ago)
KazamEmpty Suit14/01/2020 16:54:06 OT (3D 9H 42M ago)
DelucaEmpty Suit14/01/2020 17:34:06 OT (3D 9H 2M ago)
RedlabelEmpty Suit14/01/2020 17:34:06 OT (3D 9H 2M ago)
HoffaEmpty Suit14/01/2020 17:57:03 OT (3D 8H 40M ago)
ZoraEmpty Suit14/01/2020 18:02:05 OT (3D 8H 34M ago)
KaraaEmpty Suit14/01/2020 18:29:05 OT (3D 8H 7M ago)
DrgnEmpty Suit14/01/2020 18:58:05 OT (3D 7H 38M ago)
ClaretredEmpty Suit14/01/2020 20:08:05 OT (3D 6H 28M ago)
OcarniaEmpty Suit14/01/2020 20:22:05 OT (3D 6H 14M ago)
DaeEmpty Suit14/01/2020 20:22:05 OT (3D 6H 14M ago)
YesuEmpty Suit14/01/2020 21:20:05 OT (3D 5H 16M ago)
AngeldarkEmpty Suit14/01/2020 21:20:05 OT (3D 5H 16M ago)
SoveranoEmpty Suit14/01/2020 21:47:05 OT (3D 4H 49M ago)
AdasfEmpty Suit14/01/2020 22:42:05 OT (3D 3H 54M ago)
TottoEmpty Suit14/01/2020 23:42:05 OT (3D 2H 54M ago)
YoloEmpty Suit15/01/2020 00:18:04 OT (3D 2H 19M ago)
LuckEmpty Suit15/01/2020 01:12:05 OT (3D 1H 24M ago)
FerEmpty Suit15/01/2020 01:44:03 OT (3D 0H 53M ago)
PredatorEmpty Suit15/01/2020 03:09:04 OT (2D 23H 28M ago)
FatmikeEmpty Suit15/01/2020 04:48:03 OT (2D 21H 49M ago)
RamcelEmpty Suit15/01/2020 04:51:05 OT (2D 21H 45M ago)
KoosEmpty Suit15/01/2020 06:17:05 OT (2D 20H 19M ago)
MrbucaksEmpty Suit15/01/2020 06:48:04 OT (2D 19H 49M ago)
ZancaEmpty Suit15/01/2020 08:07:05 OT (2D 18H 29M ago)
CobraEmpty Suit15/01/2020 10:01:03 OT (2D 16H 36M ago)
FsagsdkljjsaEmpty Suit15/01/2020 10:25:04 OT (2D 16H 12M ago)
NusretEmpty Suit15/01/2020 10:25:04 OT (2D 16H 12M ago)
TheakyEmpty Suit15/01/2020 11:04:05 OT (2D 15H 32M ago)
FadedEmpty Suit15/01/2020 12:15:03 OT (2D 14H 22M ago)
MuroEmpty Suit15/01/2020 13:05:05 OT (2D 13H 31M ago)
DzigiEmpty Suit15/01/2020 13:41:05 OT (2D 12H 55M ago)
PavonesEmpty Suit15/01/2020 15:09:05 OT (2D 11H 27M ago)
DemirEmpty Suit15/01/2020 16:00:05 OT (2D 10H 36M ago)
KrystyanEmpty Suit15/01/2020 16:34:03 OT (2D 10H 3M ago)
TanteEmpty Suit15/01/2020 17:47:05 OT (2D 8H 49M ago)
TutjuhEmpty Suit15/01/2020 17:47:05 OT (2D 8H 49M ago)
ModEmpty Suit15/01/2020 17:47:05 OT (2D 8H 49M ago)
MincirEmpty Suit15/01/2020 18:00:03 OT (2D 8H 37M ago)
MustafaEmpty Suit15/01/2020 18:17:05 OT (2D 8H 19M ago)
SkopskiEmpty Suit15/01/2020 18:27:05 OT (2D 8H 9M ago)
BrokenEmpty Suit15/01/2020 18:31:05 OT (2D 8H 5M ago)
GaboEmpty Suit15/01/2020 18:46:06 OT (2D 7H 50M ago)
TeyteyEmpty Suit15/01/2020 19:00:05 OT (2D 7H 36M ago)
AkrephusEmpty Suit15/01/2020 19:54:05 OT (2D 6H 42M ago)
DezaEmpty Suit15/01/2020 20:03:05 OT (2D 6H 33M ago)
DictatuurEmpty Suit15/01/2020 20:20:05 OT (2D 6H 16M ago)
CikilashiEmpty Suit15/01/2020 20:35:06 OT (2D 6H 1M ago)
WhyyEmpty Suit15/01/2020 20:45:05 OT (2D 5H 51M ago)
VolantisEmpty Suit15/01/2020 21:35:05 OT (2D 5H 1M ago)
FaikatillaEmpty Suit15/01/2020 22:18:04 OT (2D 4H 19M ago)
EthanEmpty Suit15/01/2020 23:58:05 OT (2D 2H 38M ago)
MassaroEmpty Suit16/01/2020 00:02:05 OT (2D 2H 34M ago)
BigturkEmpty Suit16/01/2020 01:05:04 OT (2D 1H 32M ago)
JantjeEmpty Suit16/01/2020 01:15:05 OT (2D 1H 21M ago)
PhilinjoEmpty Suit16/01/2020 03:52:04 OT (1D 22H 45M ago)
TestuserEmpty Suit16/01/2020 05:02:05 OT (1D 21H 34M ago)
FuckfaceEmpty Suit16/01/2020 05:21:04 OT (1D 21H 16M ago)
ZxcEmpty Suit16/01/2020 06:57:05 OT (1D 19H 39M ago)
KasifogluEmpty Suit16/01/2020 07:40:03 OT (1D 18H 57M ago)
BobyEmpty Suit16/01/2020 08:42:03 OT (1D 17H 55M ago)
AsdasdadEmpty Suit16/01/2020 09:05:05 OT (1D 17H 31M ago)
DemeoEmpty Suit16/01/2020 10:49:04 OT (1D 15H 48M ago)
JciEmpty Suit16/01/2020 12:21:06 OT (1D 14H 15M ago)
LevisEmpty Suit16/01/2020 12:51:03 OT (1D 13H 46M ago)
WerwertsEmpty Suit16/01/2020 12:58:03 OT (1D 13H 39M ago)
GreetEmpty Suit16/01/2020 13:21:02 OT (1D 13H 16M ago)
CentilitestEmpty Suit16/01/2020 13:21:02 OT (1D 13H 16M ago)
UyuEmpty Suit16/01/2020 15:07:05 OT (1D 11H 29M ago)
JesterEmpty Suit16/01/2020 15:23:05 OT (1D 11H 13M ago)
SmyrnaEmpty Suit16/01/2020 16:44:06 OT (1D 9H 52M ago)
RlEmpty Suit16/01/2020 16:57:04 OT (1D 9H 40M ago)
ChuchidenkoEmpty Suit16/01/2020 17:29:05 OT (1D 9H 7M ago)
HelpEmpty Suit16/01/2020 19:31:03 OT (1D 7H 6M ago)
SerdarEmpty Suit16/01/2020 20:04:05 OT (1D 6H 32M ago)
BrankovichEmpty Suit16/01/2020 20:30:03 OT (1D 6H 7M ago)
DsmndEmpty Suit16/01/2020 20:43:05 OT (1D 5H 53M ago)
BaliciEmpty Suit16/01/2020 20:47:05 OT (1D 5H 49M ago)
DravaEmpty Suit17/01/2020 00:18:03 OT (1D 2H 19M ago)
MasterEmpty Suit17/01/2020 01:11:04 OT (1D 1H 26M ago)
PetreEmpty Suit17/01/2020 02:56:05 OT (0D 23H 40M ago)
LotsaboozeEmpty Suit17/01/2020 04:02:04 OT (0D 22H 35M ago)
MdcEmpty Suit17/01/2020 04:54:03 OT (0D 21H 43M ago)
KanturalibeyEmpty Suit17/01/2020 06:15:05 OT (0D 20H 21M ago)
MeroEmpty Suit17/01/2020 06:48:05 OT (0D 19H 48M ago)
ObitoEmpty Suit17/01/2020 07:39:03 OT (0D 18H 58M ago)
BuzadamEmpty Suit17/01/2020 07:55:03 OT (0D 18H 42M ago)
ViraEmpty Suit17/01/2020 08:17:05 OT (0D 18H 19M ago)
BumEmpty Suit17/01/2020 09:44:03 OT (0D 16H 53M ago)
OndraEmpty Suit17/01/2020 09:44:03 OT (0D 16H 53M ago)
BahadirogluEmpty Suit17/01/2020 09:44:03 OT (0D 16H 53M ago)
DoctorEmpty Suit17/01/2020 10:00:02 OT (0D 16H 37M ago)
VargEmpty Suit17/01/2020 10:21:05 OT (0D 16H 15M ago)
JoloEmpty Suit17/01/2020 11:09:04 OT (0D 15H 28M ago)
ImdeadEmpty Suit17/01/2020 11:18:05 OT (0D 15H 18M ago)
LejyonerEmpty Suit17/01/2020 11:34:05 OT (0D 15H 2M ago)
BaddbytchEmpty Suit17/01/2020 11:51:05 OT (0D 14H 45M ago)
BindiyarEmpty Suit17/01/2020 11:51:05 OT (0D 14H 45M ago)
YayoEmpty Suit17/01/2020 11:55:05 OT (0D 14H 41M ago)
MohamedmoEmpty Suit17/01/2020 12:22:05 OT (0D 14H 14M ago)
FayneEmpty Suit17/01/2020 12:39:05 OT (0D 13H 57M ago)
XaEmpty Suit17/01/2020 14:02:04 OT (0D 12H 35M ago)
UurEmpty Suit17/01/2020 14:26:06 OT (0D 12H 10M ago)
PrciaroundEmpty Suit17/01/2020 14:31:05 OT (0D 12H 5M ago)
DomiEmpty Suit17/01/2020 14:31:05 OT (0D 12H 5M ago)
KingenderEmpty Suit17/01/2020 14:41:05 OT (0D 11H 55M ago)
RdEmpty Suit17/01/2020 14:50:05 OT (0D 11H 46M ago)
HaydaEmpty Suit17/01/2020 15:07:04 OT (0D 11H 30M ago)
SmoghEmpty Suit17/01/2020 15:25:05 OT (0D 11H 11M ago)
RoberEmpty Suit17/01/2020 16:09:05 OT (0D 10H 27M ago)
BusterEmpty Suit17/01/2020 16:09:05 OT (0D 10H 27M ago)
SweetladyanoEmpty Suit17/01/2020 16:22:04 OT (0D 10H 15M ago)
SeaEmpty Suit17/01/2020 16:33:03 OT (0D 10H 4M ago)
KunterEmpty Suit17/01/2020 16:40:05 OT (0D 9H 56M ago)
KorkusuzEmpty Suit17/01/2020 17:18:05 OT (0D 9H 18M ago)
BeneficentEmpty Suit17/01/2020 17:56:02 OT (0D 8H 41M ago)
TibrEmpty Suit17/01/2020 18:06:03 OT (0D 8H 31M ago)
DolanEmpty Suit17/01/2020 18:16:05 OT (0D 8H 20M ago)
OggelitoEmpty Suit17/01/2020 18:16:05 OT (0D 8H 20M ago)
MatowzkiEmpty Suit17/01/2020 18:24:06 OT (0D 8H 12M ago)
MeriadocEmpty Suit17/01/2020 18:47:06 OT (0D 7H 49M ago)
ObirminnakEmpty Suit17/01/2020 18:57:05 OT (0D 7H 39M ago)
PsychosmurfEmpty Suit17/01/2020 19:03:12 OT (0D 7H 33M ago)
JoececodEmpty Suit17/01/2020 19:03:12 OT (0D 7H 33M ago)
VandalmageEmpty Suit17/01/2020 19:08:05 OT (0D 7H 28M ago)
JaneEmpty Suit17/01/2020 19:22:05 OT (0D 7H 14M ago)
BobgangstaEmpty Suit17/01/2020 19:26:05 OT (0D 7H 10M ago)
HugolineEmpty Suit17/01/2020 19:31:05 OT (0D 7H 5M ago)
FelicityEmpty Suit17/01/2020 19:31:05 OT (0D 7H 5M ago)
SdfsfEmpty Suit17/01/2020 19:37:05 OT (0D 6H 59M ago)
WarlockEmpty Suit17/01/2020 19:42:06 OT (0D 6H 54M ago)
GoneEmpty Suit17/01/2020 19:42:06 OT (0D 6H 54M ago)
DjdjudiEmpty Suit17/01/2020 19:52:05 OT (0D 6H 44M ago)
CalveEmpty Suit17/01/2020 20:11:03 OT (0D 6H 26M ago)
AlerquinaEmpty Suit17/01/2020 20:38:05 OT (0D 5H 58M ago)
XetrauqEmpty Suit17/01/2020 20:53:03 OT (0D 5H 44M ago)
KilladorEmpty Suit17/01/2020 20:56:05 OT (0D 5H 40M ago)
ZexEmpty Suit17/01/2020 20:56:05 OT (0D 5H 40M ago)
RemoEmpty Suit17/01/2020 21:01:05 OT (0D 5H 35M ago)
JoejellyEmpty Suit17/01/2020 21:01:05 OT (0D 5H 35M ago)
MoEmpty Suit17/01/2020 21:23:05 OT (0D 5H 13M ago)
GuevaraEmpty Suit17/01/2020 21:40:03 OT (0D 4H 57M ago)
MadilineEmpty Suit17/01/2020 22:26:03 OT (0D 4H 11M ago)
GundarezEmpty Suit17/01/2020 22:29:05 OT (0D 4H 7M ago)
BlacklistEmpty Suit17/01/2020 22:57:06 OT (0D 3H 39M ago)
JakeEmpty Suit17/01/2020 23:10:05 OT (0D 3H 26M ago)
RabobankEmpty Suit17/01/2020 23:31:03 OT (0D 3H 6M ago)
PennywiseEmpty Suit17/01/2020 23:36:05 OT (0D 3H 0M ago)
IcepickEmpty Suit17/01/2020 23:40:05 OT (0D 2H 56M ago)
EvaEmpty Suit17/01/2020 23:40:05 OT (0D 2H 56M ago)
TylorEmpty Suit17/01/2020 23:50:03 OT (0D 2H 47M ago)
AlmilaaEmpty Suit18/01/2020 00:05:05 OT (0D 2H 31M ago)
WezEmpty Suit18/01/2020 00:23:05 OT (0D 2H 13M ago)
KvistoEmpty Suit18/01/2020 00:23:05 OT (0D 2H 13M ago)
MobbieEmpty Suit18/01/2020 00:42:03 OT (0D 1H 55M ago)
DutcheyEmpty Suit18/01/2020 00:46:05 OT (0D 1H 50M ago)
ScaliseEmpty Suit18/01/2020 01:23:05 OT (0D 1H 13M ago)
MateoEmpty Suit18/01/2020 02:20:05 OT (0D 0H 16M ago)
RasEmpty Suit18/01/2020 02:27:05 OT (0D 0H 9M ago)
OmertaDelivery Boy10/01/2020 12:53:06 OT (7D 13H 43M ago)
MistherionDelivery Boy10/01/2020 14:02:05 OT (7D 12H 34M ago)
DocDelivery Boy10/01/2020 15:05:05 OT (7D 11H 31M ago)
BasteroDelivery Boy10/01/2020 18:02:04 OT (7D 8H 35M ago)
SanmkDelivery Boy10/01/2020 22:27:05 OT (7D 4H 9M ago)
BoruDelivery Boy11/01/2020 05:26:05 OT (6D 21H 10M ago)
HatchettttDelivery Boy11/01/2020 06:18:05 OT (6D 20H 18M ago)
WinterDelivery Boy11/01/2020 15:11:03 OT (6D 11H 26M ago)
CesiDelivery Boy11/01/2020 21:02:03 OT (6D 5H 35M ago)
HalloumiDelivery Boy12/01/2020 13:22:05 OT (5D 13H 14M ago)
FulhamlukeDelivery Boy12/01/2020 17:25:03 OT (5D 9H 12M ago)
CosmeDelivery Boy12/01/2020 18:48:05 OT (5D 7H 48M ago)
SuckmybulletDelivery Boy12/01/2020 19:25:02 OT (5D 7H 12M ago)
LexnaDelivery Boy12/01/2020 20:22:03 OT (5D 6H 15M ago)
MatahariDelivery Boy12/01/2020 21:28:03 OT (5D 5H 9M ago)
WoodenickletDelivery Boy12/01/2020 22:49:05 OT (5D 3H 47M ago)
ChauchaDelivery Boy12/01/2020 23:14:05 OT (5D 3H 22M ago)
BiskoniceDelivery Boy13/01/2020 02:26:05 OT (5D 0H 10M ago)
DonmoratoDelivery Boy13/01/2020 13:56:03 OT (4D 12H 41M ago)
BabayagaDelivery Boy13/01/2020 15:58:05 OT (4D 10H 38M ago)
OpagottiDelivery Boy14/01/2020 17:24:04 OT (3D 9H 13M ago)
KimiDelivery Boy14/01/2020 20:48:06 OT (3D 5H 48M ago)
SartreDelivery Boy14/01/2020 23:16:05 OT (3D 3H 20M ago)
NtakosDelivery Boy15/01/2020 09:28:05 OT (2D 17H 8M ago)
ZiziDelivery Boy15/01/2020 11:51:05 OT (2D 14H 45M ago)
KrassekarelDelivery Boy15/01/2020 14:05:05 OT (2D 12H 31M ago)
ZiegeDelivery Boy15/01/2020 14:53:05 OT (2D 11H 43M ago)
LaplucheDelivery Boy15/01/2020 17:38:05 OT (2D 8H 58M ago)
FarkasDelivery Boy16/01/2020 06:46:03 OT (1D 19H 51M ago)
HollyDelivery Boy16/01/2020 07:03:05 OT (1D 19H 33M ago)
AlexasimDelivery Boy16/01/2020 11:47:05 OT (1D 14H 49M ago)
KadgleeDelivery Boy16/01/2020 11:57:02 OT (1D 14H 40M ago)
AaxhenDelivery Boy16/01/2020 17:34:06 OT (1D 9H 2M ago)
AsdfDelivery Boy16/01/2020 21:09:05 OT (1D 5H 27M ago)
FirstunicornDelivery Boy16/01/2020 23:01:05 OT (1D 3H 35M ago)
VitferDelivery Boy17/01/2020 02:17:05 OT (1D 0H 19M ago)
WarlordDelivery Boy17/01/2020 11:09:04 OT (0D 15H 28M ago)
GuardianDelivery Boy17/01/2020 11:09:04 OT (0D 15H 28M ago)
BarbarosDelivery Boy17/01/2020 11:51:05 OT (0D 14H 45M ago)
ThorrDelivery Boy17/01/2020 12:34:04 OT (0D 14H 3M ago)
HeriditasDelivery Boy17/01/2020 14:07:05 OT (0D 12H 29M ago)
SpacewDelivery Boy17/01/2020 14:54:05 OT (0D 11H 42M ago)
EstherDelivery Boy17/01/2020 15:49:05 OT (0D 10H 47M ago)
RyosakDelivery Boy17/01/2020 16:09:05 OT (0D 10H 27M ago)
BietraDelivery Boy17/01/2020 18:27:04 OT (0D 8H 10M ago)
NederlanderDelivery Boy17/01/2020 18:34:03 OT (0D 8H 3M ago)
TudorDelivery Boy17/01/2020 19:08:05 OT (0D 7H 28M ago)
HitmanDelivery Boy17/01/2020 19:13:05 OT (0D 7H 23M ago)
LucaDelivery Boy17/01/2020 20:00:05 OT (0D 6H 36M ago)
NapoliDelivery Boy17/01/2020 20:11:03 OT (0D 6H 26M ago)
HarrishorrorDelivery Boy17/01/2020 21:49:02 OT (0D 4H 48M ago)
MolotovDelivery Boy17/01/2020 22:18:05 OT (0D 4H 18M ago)
PatokkiesDelivery Boy17/01/2020 23:50:03 OT (0D 2H 47M ago)
QballDelivery Boy18/01/2020 00:23:05 OT (0D 2H 13M ago)
JafariDelivery Boy18/01/2020 00:32:05 OT (0D 2H 4M ago)
JazzyDelivery Boy18/01/2020 00:53:05 OT (0D 1H 43M ago)
KelDelivery Boy18/01/2020 02:36:03 OT (0D 0H 1M ago)
KuzgunPicciotto10/01/2020 13:25:27 OT (7D 13H 11M ago)
FranzPicciotto10/01/2020 13:25:27 OT (7D 13H 11M ago)
FundaPicciotto10/01/2020 13:38:03 OT (7D 12H 59M ago)
IshhPicciotto10/01/2020 14:24:06 OT (7D 12H 12M ago)
LawyerPicciotto10/01/2020 14:37:05 OT (7D 11H 59M ago)
OnlysherPicciotto10/01/2020 14:37:05 OT (7D 11H 59M ago)
HardpartyPicciotto10/01/2020 14:46:05 OT (7D 11H 50M ago)
ExcitePicciotto10/01/2020 14:53:04 OT (7D 11H 44M ago)
LeonardoPicciotto10/01/2020 14:53:04 OT (7D 11H 44M ago)
AguilarPicciotto10/01/2020 15:53:02 OT (7D 10H 44M ago)
JunoPicciotto10/01/2020 16:02:04 OT (7D 10H 35M ago)
EnsoPicciotto10/01/2020 16:52:05 OT (7D 9H 44M ago)
SaracchiPicciotto10/01/2020 19:05:05 OT (7D 7H 31M ago)
MarePicciotto11/01/2020 17:48:05 OT (6D 8H 48M ago)
CrimPicciotto12/01/2020 00:06:05 OT (6D 2H 30M ago)
ObareyPicciotto12/01/2020 01:47:05 OT (6D 0H 49M ago)
NovellaPicciotto13/01/2020 04:30:05 OT (4D 22H 6M ago)
ErzaPicciotto13/01/2020 10:53:05 OT (4D 15H 43M ago)
EmparioPicciotto13/01/2020 16:18:03 OT (4D 10H 19M ago)
HenkPicciotto13/01/2020 20:17:03 OT (4D 6H 20M ago)
PozytronePicciotto13/01/2020 23:47:04 OT (4D 2H 50M ago)
BlackjobPicciotto14/01/2020 11:34:05 OT (3D 15H 2M ago)
ThemfdPicciotto14/01/2020 11:49:05 OT (3D 14H 47M ago)
DarriusPicciotto14/01/2020 12:39:05 OT (3D 13H 57M ago)
SiaraPicciotto15/01/2020 15:12:05 OT (2D 11H 24M ago)
DcfarmsPicciotto15/01/2020 21:26:03 OT (2D 5H 11M ago)
JohnytorrioPicciotto16/01/2020 03:52:04 OT (1D 22H 45M ago)
DongorePicciotto16/01/2020 07:40:03 OT (1D 18H 57M ago)
PromethePicciotto16/01/2020 13:34:05 OT (1D 13H 2M ago)
BobiniPicciotto16/01/2020 14:03:05 OT (1D 12H 33M ago)
MirePicciotto16/01/2020 16:38:04 OT (1D 9H 59M ago)
BatellaPicciotto16/01/2020 18:44:05 OT (1D 7H 52M ago)
ShortknifePicciotto16/01/2020 19:24:05 OT (1D 7H 12M ago)
GufyPicciotto16/01/2020 23:33:03 OT (1D 3H 4M ago)
LazarusPicciotto16/01/2020 23:46:05 OT (1D 2H 50M ago)
CryPicciotto17/01/2020 00:29:05 OT (1D 2H 7M ago)
FrieskillerPicciotto17/01/2020 04:54:03 OT (0D 21H 43M ago)
ScarlettPicciotto17/01/2020 05:24:03 OT (0D 21H 13M ago)
BananaPicciotto17/01/2020 06:25:05 OT (0D 20H 11M ago)
DoobzPicciotto17/01/2020 08:02:06 OT (0D 18H 34M ago)
MrwhitePicciotto17/01/2020 12:14:05 OT (0D 14H 22M ago)
BizzarriPicciotto17/01/2020 12:57:05 OT (0D 13H 39M ago)
VoxvalorPicciotto17/01/2020 13:55:05 OT (0D 12H 41M ago)
MagaliePicciotto17/01/2020 14:13:05 OT (0D 12H 23M ago)
SphinxPicciotto17/01/2020 15:59:04 OT (0D 10H 38M ago)
ThierryfrankPicciotto17/01/2020 16:02:05 OT (0D 10H 34M ago)
CrookyPicciotto17/01/2020 16:40:05 OT (0D 9H 56M ago)
BlackcoffeePicciotto17/01/2020 17:56:02 OT (0D 8H 41M ago)
DobnickPicciotto17/01/2020 18:10:05 OT (0D 8H 26M ago)
HyobanshiPicciotto17/01/2020 18:43:05 OT (0D 7H 53M ago)
NadrunPicciotto17/01/2020 19:26:05 OT (0D 7H 10M ago)
CoincidencePicciotto17/01/2020 20:46:05 OT (0D 5H 50M ago)
RawPicciotto17/01/2020 21:40:03 OT (0D 4H 57M ago)
ThatguyPicciotto17/01/2020 21:49:02 OT (0D 4H 48M ago)
MvpPicciotto17/01/2020 23:55:05 OT (0D 2H 41M ago)
MrdavePicciotto18/01/2020 00:15:05 OT (0D 2H 21M ago)
StrelamiaPicciotto18/01/2020 00:23:05 OT (0D 2H 13M ago)
BatarelPicciotto18/01/2020 00:57:02 OT (0D 1H 40M ago)
ServdownPicciotto18/01/2020 01:14:06 OT (0D 1H 22M ago)
CyborgPicciotto18/01/2020 01:33:04 OT (0D 1H 4M ago)
CoscuelluelaPicciotto18/01/2020 02:20:05 OT (0D 0H 16M ago)
HotstuffPicciotto18/01/2020 02:36:03 OT (0D 0H 1M ago)
FarmerShoplifter10/01/2020 16:12:05 OT (7D 10H 24M ago)
MlimiShoplifter10/01/2020 17:38:06 OT (7D 8H 58M ago)
VoidbecosShoplifter10/01/2020 17:38:06 OT (7D 8H 58M ago)
ZerofoxShoplifter10/01/2020 18:15:05 OT (7D 8H 21M ago)
RuelShoplifter10/01/2020 18:40:03 OT (7D 7H 57M ago)
CamentaShoplifter10/01/2020 21:35:03 OT (7D 5H 2M ago)
AnimalShoplifter10/01/2020 23:18:05 OT (7D 3H 18M ago)
FahtleShoplifter11/01/2020 04:26:05 OT (6D 22H 10M ago)
KentShoplifter11/01/2020 06:11:03 OT (6D 20H 26M ago)
PitbullShoplifter11/01/2020 07:40:04 OT (6D 18H 57M ago)
RougeShoplifter11/01/2020 09:53:04 OT (6D 16H 44M ago)
ButtonShoplifter11/01/2020 19:48:03 OT (6D 6H 49M ago)
AnaforShoplifter11/01/2020 21:52:03 OT (6D 4H 45M ago)
LunizShoplifter12/01/2020 09:20:02 OT (5D 17H 17M ago)
PiexShoplifter12/01/2020 21:35:04 OT (5D 5H 2M ago)
EmperorShoplifter13/01/2020 10:28:05 OT (4D 16H 8M ago)
TranholmShoplifter13/01/2020 16:18:03 OT (4D 10H 19M ago)
NeganShoplifter14/01/2020 10:01:05 OT (3D 16H 35M ago)
RashfordShoplifter15/01/2020 11:21:05 OT (2D 15H 15M ago)
ErdemliShoplifter15/01/2020 12:23:05 OT (2D 14H 13M ago)
CinnamonShoplifter15/01/2020 17:47:05 OT (2D 8H 49M ago)
ValliantsShoplifter15/01/2020 21:29:03 OT (2D 5H 8M ago)
SarkynShoplifter16/01/2020 18:18:05 OT (1D 8H 18M ago)
TarShoplifter16/01/2020 19:01:02 OT (1D 7H 36M ago)
CaydeShoplifter16/01/2020 21:00:04 OT (1D 5H 37M ago)
PkpShoplifter17/01/2020 04:09:05 OT (0D 22H 27M ago)
CraizdShoplifter17/01/2020 05:10:05 OT (0D 21H 26M ago)
KatilnemesisShoplifter17/01/2020 09:02:05 OT (0D 17H 34M ago)
SebbeShoplifter17/01/2020 12:14:05 OT (0D 14H 22M ago)
SerhatcetinShoplifter17/01/2020 12:22:05 OT (0D 14H 14M ago)
GaviriaShoplifter17/01/2020 12:34:04 OT (0D 14H 3M ago)
KennyShoplifter17/01/2020 13:12:03 OT (0D 13H 25M ago)
ChandraShoplifter17/01/2020 13:31:05 OT (0D 13H 5M ago)
SeymourShoplifter17/01/2020 13:55:05 OT (0D 12H 41M ago)
DreakShoplifter17/01/2020 16:16:02 OT (0D 10H 21M ago)
MythicShoplifter17/01/2020 16:46:05 OT (0D 9H 50M ago)
HetfieldShoplifter17/01/2020 17:04:03 OT (0D 9H 33M ago)
TangoShoplifter17/01/2020 17:32:05 OT (0D 9H 4M ago)
DorubeyShoplifter17/01/2020 17:51:03 OT (0D 8H 46M ago)
SundriShoplifter17/01/2020 18:51:05 OT (0D 7H 45M ago)
LiveshitShoplifter17/01/2020 18:51:05 OT (0D 7H 45M ago)
MortShoplifter17/01/2020 19:03:12 OT (0D 7H 33M ago)
NansnsShoplifter17/01/2020 19:08:05 OT (0D 7H 28M ago)
OkrimShoplifter17/01/2020 19:42:06 OT (0D 6H 54M ago)
MissfineShoplifter17/01/2020 20:33:05 OT (0D 6H 3M ago)
AgataShoplifter17/01/2020 20:38:05 OT (0D 5H 58M ago)
McgeeShoplifter17/01/2020 21:40:03 OT (0D 4H 57M ago)
JellyassShoplifter17/01/2020 21:40:03 OT (0D 4H 57M ago)
BeautiflyShoplifter17/01/2020 21:49:02 OT (0D 4H 48M ago)
AdebisiShoplifter17/01/2020 22:02:05 OT (0D 4H 34M ago)
JaneyShoplifter17/01/2020 22:02:05 OT (0D 4H 34M ago)
SelcenShoplifter17/01/2020 22:15:06 OT (0D 4H 21M ago)
KanturaliShoplifter17/01/2020 22:15:06 OT (0D 4H 21M ago)
KaretoShoplifter17/01/2020 22:46:05 OT (0D 3H 50M ago)
BetonShoplifter17/01/2020 22:50:02 OT (0D 3H 47M ago)
PipocaShoplifter17/01/2020 23:40:05 OT (0D 2H 56M ago)
MmfreakShoplifter18/01/2020 00:02:03 OT (0D 2H 35M ago)
DarbShoplifter18/01/2020 01:43:02 OT (0D 0H 54M ago)
PetkrokketShoplifter18/01/2020 02:10:04 OT (0D 0H 27M ago)
ImpblackShoplifter18/01/2020 02:10:04 OT (0D 0H 27M ago)
LazishShoplifter18/01/2020 02:36:03 OT (0D 0H 1M ago)
PlatonPickpocket10/01/2020 22:49:04 OT (7D 3H 48M ago)
MimPickpocket10/01/2020 23:39:04 OT (7D 2H 58M ago)
SimplePickpocket11/01/2020 00:29:05 OT (7D 2H 7M ago)
BoromirPickpocket11/01/2020 01:27:03 OT (7D 1H 10M ago)
IcePickpocket11/01/2020 15:58:03 OT (6D 10H 39M ago)
WeedsheetPickpocket11/01/2020 16:26:04 OT (6D 10H 11M ago)
LilewhitePickpocket11/01/2020 18:18:05 OT (6D 8H 18M ago)
CigerPickpocket12/01/2020 19:25:02 OT (5D 7H 12M ago)
KuartetPickpocket13/01/2020 07:10:05 OT (4D 19H 26M ago)
SanchooPickpocket14/01/2020 14:04:02 OT (3D 12H 33M ago)
WallacePickpocket15/01/2020 14:34:04 OT (2D 12H 3M ago)
DilaPickpocket15/01/2020 19:41:05 OT (2D 6H 55M ago)
BobPickpocket15/01/2020 21:09:05 OT (2D 5H 27M ago)
AtsizPickpocket15/01/2020 21:54:05 OT (2D 4H 42M ago)
JinxPickpocket16/01/2020 08:35:04 OT (1D 18H 2M ago)
StasiPickpocket16/01/2020 13:01:05 OT (1D 13H 35M ago)
MisskittyPickpocket16/01/2020 13:28:05 OT (1D 13H 8M ago)
MonstarPickpocket16/01/2020 19:24:05 OT (1D 7H 12M ago)
HalogenPickpocket16/01/2020 23:33:03 OT (1D 3H 4M ago)
SorryPickpocket16/01/2020 23:40:05 OT (1D 2H 56M ago)
JousefPickpocket17/01/2020 00:44:05 OT (1D 1H 52M ago)
SumPickpocket17/01/2020 02:52:05 OT (0D 23H 44M ago)
MavihareketPickpocket17/01/2020 10:42:05 OT (0D 15H 54M ago)
SelamiPickpocket17/01/2020 11:02:03 OT (0D 15H 35M ago)
FamigeratoPickpocket17/01/2020 11:14:03 OT (0D 15H 23M ago)
MarffPickpocket17/01/2020 14:07:05 OT (0D 12H 29M ago)
JerooPickpocket17/01/2020 15:43:05 OT (0D 10H 53M ago)
MilePickpocket17/01/2020 15:53:06 OT (0D 10H 43M ago)
BelamyPickpocket17/01/2020 16:53:05 OT (0D 9H 43M ago)
GabiPickpocket17/01/2020 17:40:04 OT (0D 8H 57M ago)
AlicePickpocket17/01/2020 18:16:05 OT (0D 8H 20M ago)
NealcaffreyPickpocket17/01/2020 18:57:05 OT (0D 7H 39M ago)
OliveraPickpocket17/01/2020 19:08:05 OT (0D 7H 28M ago)
CostompeacePickpocket17/01/2020 19:17:05 OT (0D 7H 19M ago)
EsfandiariPickpocket17/01/2020 20:38:05 OT (0D 5H 58M ago)
DanielloPickpocket17/01/2020 20:46:05 OT (0D 5H 50M ago)
RetiredPickpocket17/01/2020 21:49:02 OT (0D 4H 48M ago)
HjiPickpocket17/01/2020 22:50:02 OT (0D 3H 47M ago)
WiredPickpocket17/01/2020 23:45:04 OT (0D 2H 52M ago)
DnaPickpocket18/01/2020 00:32:05 OT (0D 2H 4M ago)
SavagePickpocket18/01/2020 00:46:05 OT (0D 1H 50M ago)
SkatopsyxosPickpocket18/01/2020 01:23:05 OT (0D 1H 13M ago)
EndgamePickpocket18/01/2020 01:23:05 OT (0D 1H 13M ago)
SupaPickpocket18/01/2020 01:29:03 OT (0D 1H 8M ago)
DefPickpocket18/01/2020 02:10:04 OT (0D 0H 27M ago)
DarkoPickpocket18/01/2020 02:15:03 OT (0D 0H 22M ago)
BenningjPickpocket18/01/2020 02:36:03 OT (0D 0H 1M ago)
MeadPickpocket18/01/2020 02:36:03 OT (0D 0H 1M ago)
LazowPickpocket18/01/2020 02:36:03 OT (0D 0H 1M ago)
XxxThief11/01/2020 09:19:05 OT (6D 17H 17M ago)
AgronThief11/01/2020 14:33:05 OT (6D 12H 3M ago)
GrayThief11/01/2020 14:40:05 OT (6D 11H 56M ago)
KylieThief12/01/2020 17:58:03 OT (5D 8H 39M ago)
WmcThief12/01/2020 19:10:06 OT (5D 7H 26M ago)
FenasikerimThief13/01/2020 12:12:02 OT (4D 14H 25M ago)
EownyThief13/01/2020 13:35:05 OT (4D 13H 1M ago)
AsscrackThief13/01/2020 17:58:03 OT (4D 8H 39M ago)
AronThief14/01/2020 04:26:04 OT (3D 22H 11M ago)
KomshuThief14/01/2020 21:04:05 OT (3D 5H 32M ago)
CesetThief15/01/2020 11:21:05 OT (2D 15H 15M ago)
SeroThief16/01/2020 02:48:04 OT (1D 23H 49M ago)
CgbThief16/01/2020 10:49:04 OT (1D 15H 48M ago)
XannyThief16/01/2020 12:29:05 OT (1D 14H 7M ago)
SahinbeyThief16/01/2020 18:18:05 OT (1D 8H 18M ago)
ShukakuThief16/01/2020 20:30:03 OT (1D 6H 7M ago)
MochaThief17/01/2020 01:58:06 OT (1D 0H 38M ago)
AmphitriteThief17/01/2020 02:23:05 OT (1D 0H 13M ago)
RickayThief17/01/2020 07:03:04 OT (0D 19H 34M ago)
ReddoggThief17/01/2020 11:47:05 OT (0D 14H 49M ago)
MarsThief17/01/2020 13:20:05 OT (0D 13H 16M ago)
DoorlopenThief17/01/2020 14:02:04 OT (0D 12H 35M ago)
XhantisThief17/01/2020 14:07:05 OT (0D 12H 29M ago)
WimperThief17/01/2020 14:31:05 OT (0D 12H 5M ago)
LdnThief17/01/2020 15:13:06 OT (0D 11H 23M ago)
ZoontjeThief17/01/2020 15:25:05 OT (0D 11H 11M ago)
UiltjeThief17/01/2020 16:02:05 OT (0D 10H 34M ago)
ZahraThief17/01/2020 16:40:05 OT (0D 9H 56M ago)
NoirThief17/01/2020 17:04:03 OT (0D 9H 33M ago)
FelixThief17/01/2020 18:47:06 OT (0D 7H 49M ago)
DebreligrasoThief17/01/2020 19:17:05 OT (0D 7H 19M ago)
RexarThief17/01/2020 19:45:11 OT (0D 6H 51M ago)
BorgataThief17/01/2020 20:42:05 OT (0D 5H 54M ago)
SolsikkeThief17/01/2020 22:18:05 OT (0D 4H 18M ago)
SpeedygonzalThief17/01/2020 22:39:05 OT (0D 3H 57M ago)
LarakiThief18/01/2020 00:28:05 OT (0D 2H 8M ago)
BelerianThief18/01/2020 00:38:05 OT (0D 1H 58M ago)
PiscisThief18/01/2020 00:42:03 OT (0D 1H 55M ago)
MrgarzaThief18/01/2020 00:57:02 OT (0D 1H 40M ago)
DircolicThief18/01/2020 01:33:04 OT (0D 1H 4M ago)
ArtyialThief18/01/2020 01:58:03 OT (0D 0H 39M ago)
MatmanThief18/01/2020 02:20:05 OT (0D 0H 16M ago)
VespasianThief18/01/2020 02:31:04 OT (0D 0H 6M ago)
TedThief18/01/2020 02:36:03 OT (0D 0H 1M ago)
PalmThief18/01/2020 02:36:03 OT (0D 0H 1M ago)
SwordThief18/01/2020 02:36:03 OT (0D 0H 1M ago)
ArachnaAssociate13/01/2020 08:28:05 OT (4D 18H 8M ago)
BaneAssociate13/01/2020 10:21:04 OT (4D 16H 16M ago)
AphonAssociate13/01/2020 17:30:10 OT (4D 9H 6M ago)
VueltaAssociate13/01/2020 21:52:06 OT (4D 4H 44M ago)
ToukaAssociate14/01/2020 09:51:03 OT (3D 16H 46M ago)
DeadpoolAssociate14/01/2020 19:03:04 OT (3D 7H 34M ago)
IreliaAssociate14/01/2020 20:08:05 OT (3D 6H 28M ago)
DiabolicAssociate15/01/2020 05:21:04 OT (2D 21H 16M ago)
FigoAssociate15/01/2020 13:41:05 OT (2D 12H 55M ago)
NewAssociate15/01/2020 14:50:04 OT (2D 11H 47M ago)
KartalizmaAssociate15/01/2020 17:27:05 OT (2D 9H 9M ago)
UnikkatilAssociate15/01/2020 21:05:04 OT (2D 5H 32M ago)
BullieAssociate16/01/2020 10:22:05 OT (1D 16H 14M ago)
SdfsdfAssociate16/01/2020 15:29:03 OT (1D 11H 8M ago)
MiredoAssociate16/01/2020 16:34:05 OT (1D 10H 2M ago)
LillyAssociate17/01/2020 02:30:03 OT (1D 0H 7M ago)
AlexAssociate17/01/2020 08:02:06 OT (0D 18H 34M ago)
CyaAssociate17/01/2020 09:22:03 OT (0D 17H 15M ago)
HsslAssociate17/01/2020 10:16:06 OT (0D 16H 20M ago)
KasamAssociate17/01/2020 12:02:03 OT (0D 14H 35M ago)
TellakAssociate17/01/2020 12:22:05 OT (0D 14H 14M ago)
RevangeAssociate17/01/2020 12:39:05 OT (0D 13H 57M ago)
BlackmailerAssociate17/01/2020 12:46:03 OT (0D 13H 51M ago)
PippinAssociate17/01/2020 12:57:05 OT (0D 13H 39M ago)
ThebigsmokesAssociate17/01/2020 13:48:05 OT (0D 12H 48M ago)
ZagatoAssociate17/01/2020 14:26:06 OT (0D 12H 10M ago)
GeraciAssociate17/01/2020 14:50:05 OT (0D 11H 46M ago)
MooirAssociate17/01/2020 15:43:05 OT (0D 10H 53M ago)
DgnAssociate17/01/2020 15:53:06 OT (0D 10H 43M ago)
FinocchioAssociate17/01/2020 17:12:05 OT (0D 9H 24M ago)
AspectAssociate17/01/2020 18:00:05 OT (0D 8H 36M ago)
CosetteAssociate17/01/2020 18:24:06 OT (0D 8H 12M ago)
DonpeetroAssociate17/01/2020 18:47:06 OT (0D 7H 49M ago)
HypnoseAssociate17/01/2020 19:26:05 OT (0D 7H 10M ago)
KamasutraAssociate17/01/2020 19:26:05 OT (0D 7H 10M ago)
SilverAssociate17/01/2020 19:42:06 OT (0D 6H 54M ago)
ButterflyAssociate17/01/2020 19:52:05 OT (0D 6H 44M ago)
CasalusioAssociate17/01/2020 20:33:05 OT (0D 6H 3M ago)
SonnyAssociate17/01/2020 20:38:05 OT (0D 5H 58M ago)
RecklessAssociate17/01/2020 20:38:05 OT (0D 5H 58M ago)
MecovyAssociate17/01/2020 20:56:05 OT (0D 5H 40M ago)
EniggmaAssociate17/01/2020 21:01:05 OT (0D 5H 35M ago)
BerlinerAssociate17/01/2020 21:23:05 OT (0D 5H 13M ago)
BagozzaAssociate17/01/2020 22:12:02 OT (0D 4H 25M ago)
RetblueAssociate17/01/2020 22:33:02 OT (0D 4H 4M ago)
JuzzyAssociate17/01/2020 22:39:05 OT (0D 3H 57M ago)
KakhoofdAssociate17/01/2020 22:39:05 OT (0D 3H 57M ago)
CikilataAssociate17/01/2020 22:46:05 OT (0D 3H 50M ago)
KaliveraAssociate17/01/2020 22:46:05 OT (0D 3H 50M ago)
MochoAssociate17/01/2020 22:50:02 OT (0D 3H 47M ago)
ZuccheroAssociate17/01/2020 22:50:02 OT (0D 3H 47M ago)
FokbaligiAssociate17/01/2020 22:57:06 OT (0D 3H 39M ago)
PrimeraAssociate17/01/2020 23:05:05 OT (0D 3H 31M ago)
MissAssociate17/01/2020 23:17:04 OT (0D 3H 20M ago)
DecoAssociate17/01/2020 23:17:04 OT (0D 3H 20M ago)
ResAssociate17/01/2020 23:36:05 OT (0D 3H 0M ago)
MoaAssociate17/01/2020 23:45:04 OT (0D 2H 52M ago)
LidiaAssociate17/01/2020 23:50:03 OT (0D 2H 47M ago)
SmyaerAssociate17/01/2020 23:55:05 OT (0D 2H 41M ago)
LorettaAssociate18/01/2020 00:05:05 OT (0D 2H 31M ago)
DealerAssociate18/01/2020 00:32:05 OT (0D 2H 4M ago)
KomodoejderiAssociate18/01/2020 01:20:05 OT (0D 1H 16M ago)
SpecialAssociate18/01/2020 02:10:04 OT (0D 0H 27M ago)
LieAssociate18/01/2020 02:15:03 OT (0D 0H 22M ago)
RespectmeAssociate18/01/2020 02:36:03 OT (0D 0H 1M ago)
ChangretaAssociate18/01/2020 02:36:03 OT (0D 0H 1M ago)
ChitownAssociate18/01/2020 02:36:03 OT (0D 0H 1M ago)
HightvoltageMobster12/01/2020 17:50:02 OT (5D 8H 47M ago)
BinaryMobster13/01/2020 22:04:05 OT (4D 4H 32M ago)
MrMobster14/01/2020 13:33:05 OT (3D 13H 3M ago)
HerhangibirnMobster15/01/2020 01:22:05 OT (3D 1H 14M ago)
BozliMobster15/01/2020 13:35:06 OT (2D 13H 1M ago)
SadoMobster15/01/2020 15:34:05 OT (2D 11H 2M ago)
AmazonMobster15/01/2020 18:35:05 OT (2D 8H 1M ago)
AnanasMobster16/01/2020 09:26:04 OT (1D 17H 11M ago)
SimbaMobster16/01/2020 10:57:05 OT (1D 15H 39M ago)
KrakenMobster16/01/2020 14:29:05 OT (1D 12H 7M ago)
HeidiMobster16/01/2020 19:06:05 OT (1D 7H 30M ago)
LapapaMobster16/01/2020 21:53:03 OT (1D 4H 44M ago)
CanoMobster16/01/2020 23:01:05 OT (1D 3H 35M ago)
TirrekMobster17/01/2020 01:52:05 OT (1D 0H 44M ago)
PringMobster17/01/2020 02:34:05 OT (1D 0H 2M ago)
MimiMobster17/01/2020 08:50:05 OT (0D 17H 46M ago)
ShawMobster17/01/2020 10:06:05 OT (0D 16H 30M ago)
LacrimosaMobster17/01/2020 10:42:05 OT (0D 15H 54M ago)
DeliMobster17/01/2020 11:02:03 OT (0D 15H 35M ago)
SiMobster17/01/2020 11:02:03 OT (0D 15H 35M ago)
KemalMobster17/01/2020 11:51:05 OT (0D 14H 45M ago)
TaramiMobster17/01/2020 13:20:05 OT (0D 13H 16M ago)
MoerteMobster17/01/2020 13:38:04 OT (0D 12H 59M ago)
DoodslagMobster17/01/2020 13:44:05 OT (0D 12H 52M ago)
KadulmMobster17/01/2020 13:48:05 OT (0D 12H 48M ago)
StormMobster17/01/2020 13:55:05 OT (0D 12H 41M ago)
SharpMobster17/01/2020 14:13:05 OT (0D 12H 23M ago)
CapoMobster17/01/2020 14:50:05 OT (0D 11H 46M ago)
HadesMobster17/01/2020 15:07:04 OT (0D 11H 30M ago)
GingyMobster17/01/2020 15:07:04 OT (0D 11H 30M ago)
NickyMobster17/01/2020 16:02:05 OT (0D 10H 34M ago)
IsobeyMobster17/01/2020 16:16:02 OT (0D 10H 21M ago)
KarayelMobster17/01/2020 16:53:05 OT (0D 9H 43M ago)
LeminaMobster17/01/2020 17:56:02 OT (0D 8H 41M ago)
ShedidwhatMobster17/01/2020 18:16:05 OT (0D 8H 20M ago)
MuptezellMobster17/01/2020 18:27:04 OT (0D 8H 10M ago)
ViralMobster17/01/2020 18:39:05 OT (0D 7H 57M ago)
ArcignoMobster17/01/2020 19:17:05 OT (0D 7H 19M ago)
WorkMobster17/01/2020 19:17:05 OT (0D 7H 19M ago)
OttoMobster17/01/2020 19:45:11 OT (0D 6H 51M ago)
SerdiMobster17/01/2020 19:45:11 OT (0D 6H 51M ago)
ZelzeleMobster17/01/2020 19:45:11 OT (0D 6H 51M ago)
KankuMobster17/01/2020 20:21:02 OT (0D 6H 16M ago)
MarconiMobster17/01/2020 20:46:05 OT (0D 5H 50M ago)
JahMobster17/01/2020 20:53:03 OT (0D 5H 44M ago)
OpieMobster17/01/2020 21:19:05 OT (0D 5H 17M ago)
AlwaysMobster17/01/2020 21:23:05 OT (0D 5H 13M ago)
ChelseafcMobster17/01/2020 21:55:05 OT (0D 4H 41M ago)
RobinbeusMobster17/01/2020 21:59:03 OT (0D 4H 38M ago)
NothingMobster17/01/2020 22:02:05 OT (0D 4H 34M ago)
FordusMobster17/01/2020 22:12:02 OT (0D 4H 25M ago)
SharkeyMobster17/01/2020 22:18:05 OT (0D 4H 18M ago)
GnabryMobster17/01/2020 22:18:05 OT (0D 4H 18M ago)
HotinhereMobster17/01/2020 22:26:03 OT (0D 4H 11M ago)
TininoMobster17/01/2020 22:57:06 OT (0D 3H 39M ago)
MaksutMobster17/01/2020 23:17:04 OT (0D 3H 20M ago)
AkizutaMobster17/01/2020 23:25:05 OT (0D 3H 11M ago)
TiagocapoMobster17/01/2020 23:50:03 OT (0D 2H 47M ago)
ArzilloMobster17/01/2020 23:55:05 OT (0D 2H 41M ago)
PurlieuMobster18/01/2020 00:20:05 OT (0D 2H 16M ago)
MadooMobster18/01/2020 00:32:05 OT (0D 2H 4M ago)
KumMobster18/01/2020 00:42:03 OT (0D 1H 55M ago)
WhahsMobster18/01/2020 01:07:05 OT (0D 1H 29M ago)
DelaspalmasMobster18/01/2020 01:23:05 OT (0D 1H 13M ago)
DestiiMobster18/01/2020 01:43:02 OT (0D 0H 54M ago)
TsigalkoMobster18/01/2020 01:58:03 OT (0D 0H 39M ago)
DimasoMobster18/01/2020 02:36:03 OT (0D 0H 1M ago)
EzelySoldier14/01/2020 17:15:05 OT (3D 9H 21M ago)
CalvertSoldier15/01/2020 09:34:05 OT (2D 17H 2M ago)
ForyattaraSoldier15/01/2020 09:42:05 OT (2D 16H 54M ago)
HiltonSoldier15/01/2020 11:38:03 OT (2D 14H 59M ago)
AuthenticSoldier15/01/2020 22:18:04 OT (2D 4H 19M ago)
KamastraSoldier16/01/2020 07:21:04 OT (1D 19H 16M ago)
SlayerSoldier16/01/2020 10:31:03 OT (1D 16H 6M ago)
SingerSoldier16/01/2020 12:16:06 OT (1D 14H 20M ago)
FelSoldier16/01/2020 12:44:05 OT (1D 13H 52M ago)
StadyaSoldier16/01/2020 14:39:02 OT (1D 11H 58M ago)
BektasSoldier16/01/2020 17:23:05 OT (1D 9H 13M ago)
OscarSoldier16/01/2020 18:56:05 OT (1D 7H 40M ago)
DeliceSoldier16/01/2020 20:14:05 OT (1D 6H 22M ago)
KalasSoldier16/01/2020 21:09:05 OT (1D 5H 27M ago)
XoSoldier16/01/2020 21:35:05 OT (1D 5H 1M ago)
FitoSoldier16/01/2020 21:40:05 OT (1D 4H 56M ago)
ChristmasSoldier17/01/2020 00:05:05 OT (1D 2H 31M ago)
JoseSoldier17/01/2020 02:34:05 OT (1D 0H 2M ago)
SafeSoldier17/01/2020 05:00:04 OT (0D 21H 37M ago)
KaplumbagaSoldier17/01/2020 07:03:04 OT (0D 19H 34M ago)
TriaxSoldier17/01/2020 08:06:05 OT (0D 18H 30M ago)
SahinSoldier17/01/2020 08:50:05 OT (0D 17H 46M ago)
HolgerSoldier17/01/2020 09:16:03 OT (0D 17H 21M ago)
ClamSoldier17/01/2020 09:50:04 OT (0D 16H 47M ago)
TancotoneSoldier17/01/2020 10:16:06 OT (0D 16H 20M ago)
ActionSoldier17/01/2020 10:21:05 OT (0D 16H 15M ago)
SlayercoSoldier17/01/2020 10:21:05 OT (0D 16H 15M ago)
LautaroSoldier17/01/2020 10:35:05 OT (0D 16H 1M ago)
KipstaSoldier17/01/2020 11:18:05 OT (0D 15H 18M ago)
VoorheesSoldier17/01/2020 11:27:02 OT (0D 15H 10M ago)
DynoroSoldier17/01/2020 11:27:02 OT (0D 15H 10M ago)
KrglSoldier17/01/2020 11:47:05 OT (0D 14H 49M ago)
ZimSoldier17/01/2020 11:47:05 OT (0D 14H 49M ago)
MundoSoldier17/01/2020 11:55:05 OT (0D 14H 41M ago)
VurkacSoldier17/01/2020 12:14:05 OT (0D 14H 22M ago)
CySoldier17/01/2020 12:22:05 OT (0D 14H 14M ago)
LarssonSoldier17/01/2020 12:22:05 OT (0D 14H 14M ago)
SamiSoldier17/01/2020 12:46:03 OT (0D 13H 51M ago)
EruhluSoldier17/01/2020 13:26:03 OT (0D 13H 11M ago)
HectSoldier17/01/2020 13:48:05 OT (0D 12H 48M ago)
RasputinSoldier17/01/2020 14:31:05 OT (0D 12H 5M ago)
SociaSoldier17/01/2020 14:46:03 OT (0D 11H 51M ago)
ZekiSoldier17/01/2020 15:07:04 OT (0D 11H 30M ago)
JameicaSoldier17/01/2020 15:49:05 OT (0D 10H 47M ago)
DamlaSoldier17/01/2020 16:09:05 OT (0D 10H 27M ago)
VirtusSoldier17/01/2020 16:22:04 OT (0D 10H 15M ago)
KermitSoldier17/01/2020 16:28:05 OT (0D 10H 8M ago)
BerentzenSoldier17/01/2020 16:33:03 OT (0D 10H 4M ago)
PentikoSoldier17/01/2020 16:46:05 OT (0D 9H 50M ago)
LenovaSoldier17/01/2020 17:25:05 OT (0D 9H 11M ago)
KrallllSoldier17/01/2020 17:25:05 OT (0D 9H 11M ago)
ChronixxSoldier17/01/2020 17:56:02 OT (0D 8H 41M ago)
KofteciSoldier17/01/2020 18:00:05 OT (0D 8H 36M ago)
MaleficentSoldier17/01/2020 18:00:05 OT (0D 8H 36M ago)
NedlohSoldier17/01/2020 18:20:05 OT (0D 8H 16M ago)
SdSoldier17/01/2020 18:34:03 OT (0D 8H 3M ago)
RainSoldier17/01/2020 18:34:03 OT (0D 8H 3M ago)
RaySoldier17/01/2020 19:08:05 OT (0D 7H 28M ago)
HangarSoldier17/01/2020 19:13:05 OT (0D 7H 23M ago)
KuantumSoldier17/01/2020 19:13:05 OT (0D 7H 23M ago)
KinyasSoldier17/01/2020 19:17:05 OT (0D 7H 19M ago)
HerbSoldier17/01/2020 19:26:05 OT (0D 7H 10M ago)
SawyerSoldier17/01/2020 19:26:05 OT (0D 7H 10M ago)
KhristSoldier17/01/2020 19:31:05 OT (0D 7H 5M ago)
TrumpSoldier17/01/2020 19:31:05 OT (0D 7H 5M ago)
LanselotSoldier17/01/2020 19:42:06 OT (0D 6H 54M ago)
KefenciSoldier17/01/2020 19:42:06 OT (0D 6H 54M ago)
MadridSoldier17/01/2020 19:45:11 OT (0D 6H 51M ago)
NikelSoldier17/01/2020 19:52:05 OT (0D 6H 44M ago)
MgSoldier17/01/2020 20:00:05 OT (0D 6H 36M ago)
HabuggurSoldier17/01/2020 20:11:03 OT (0D 6H 26M ago)
JosephSoldier17/01/2020 20:17:03 OT (0D 6H 20M ago)
HonourglorySoldier17/01/2020 20:27:04 OT (0D 6H 10M ago)
BarbiSoldier17/01/2020 20:27:04 OT (0D 6H 10M ago)
DominoSoldier17/01/2020 20:27:04 OT (0D 6H 10M ago)
FileSoldier17/01/2020 20:33:05 OT (0D 6H 3M ago)
HellboySoldier17/01/2020 20:33:05 OT (0D 6H 3M ago)
HocaSoldier17/01/2020 20:38:05 OT (0D 5H 58M ago)
YahyaSoldier17/01/2020 20:46:05 OT (0D 5H 50M ago)
SwankerSoldier17/01/2020 20:46:05 OT (0D 5H 50M ago)
MySoldier17/01/2020 20:53:03 OT (0D 5H 44M ago)
OrsenaSoldier17/01/2020 21:01:05 OT (0D 5H 35M ago)
KatsinSoldier17/01/2020 21:01:05 OT (0D 5H 35M ago)
SurkentliSoldier17/01/2020 21:12:06 OT (0D 5H 24M ago)
HalfordSoldier17/01/2020 21:23:05 OT (0D 5H 13M ago)
PapelSoldier17/01/2020 21:23:05 OT (0D 5H 13M ago)
RyzenSoldier17/01/2020 21:23:05 OT (0D 5H 13M ago)
MontreySoldier17/01/2020 21:29:03 OT (0D 5H 8M ago)
BenjaminSoldier17/01/2020 21:29:03 OT (0D 5H 8M ago)
LoverSoldier17/01/2020 21:29:03 OT (0D 5H 8M ago)
DenzSoldier17/01/2020 21:32:06 OT (0D 5H 4M ago)
SmurfSoldier17/01/2020 21:40:03 OT (0D 4H 57M ago)
SopranosSoldier17/01/2020 21:44:05 OT (0D 4H 52M ago)
TokyoSoldier17/01/2020 21:44:05 OT (0D 4H 52M ago)
DenverSoldier17/01/2020 21:44:05 OT (0D 4H 52M ago)
MilklySoldier17/01/2020 21:59:03 OT (0D 4H 38M ago)
RaulmeirelesSoldier17/01/2020 22:02:05 OT (0D 4H 34M ago)
IcardixSoldier17/01/2020 22:05:03 OT (0D 4H 32M ago)
BadouSoldier17/01/2020 22:12:02 OT (0D 4H 25M ago)
PjanicSoldier17/01/2020 22:12:02 OT (0D 4H 25M ago)
LadralSoldier17/01/2020 22:18:05 OT (0D 4H 18M ago)
AugusteSoldier17/01/2020 22:18:05 OT (0D 4H 18M ago)
PandaSoldier17/01/2020 22:18:05 OT (0D 4H 18M ago)
FlashSoldier17/01/2020 22:33:02 OT (0D 4H 4M ago)
ZilongSoldier17/01/2020 22:33:02 OT (0D 4H 4M ago)
MadafakaSoldier17/01/2020 22:33:02 OT (0D 4H 4M ago)
RtonSoldier17/01/2020 22:33:02 OT (0D 4H 4M ago)
KursadSoldier17/01/2020 22:39:05 OT (0D 3H 57M ago)
BabufrikSoldier17/01/2020 22:39:05 OT (0D 3H 57M ago)
ImpossibleSoldier17/01/2020 22:46:05 OT (0D 3H 50M ago)
VndiSoldier17/01/2020 22:50:02 OT (0D 3H 47M ago)
AdarSoldier17/01/2020 22:57:06 OT (0D 3H 39M ago)
BlackSoldier17/01/2020 22:57:06 OT (0D 3H 39M ago)
BedisSoldier17/01/2020 22:57:06 OT (0D 3H 39M ago)
ReisSoldier17/01/2020 22:57:06 OT (0D 3H 39M ago)
FlavoSoldier17/01/2020 23:05:05 OT (0D 3H 31M ago)
ThenorthSoldier17/01/2020 23:10:05 OT (0D 3H 26M ago)
LothbrokSoldier17/01/2020 23:10:05 OT (0D 3H 26M ago)
MyselfSoldier17/01/2020 23:17:04 OT (0D 3H 20M ago)
SecretSoldier17/01/2020 23:17:04 OT (0D 3H 20M ago)
KokosnootSoldier17/01/2020 23:25:05 OT (0D 3H 11M ago)
KlepmasterSoldier17/01/2020 23:31:03 OT (0D 3H 6M ago)
ChowSoldier17/01/2020 23:31:03 OT (0D 3H 6M ago)
EsquireSoldier17/01/2020 23:40:05 OT (0D 2H 56M ago)
WestSoldier17/01/2020 23:55:05 OT (0D 2H 41M ago)
SdtSoldier17/01/2020 23:55:05 OT (0D 2H 41M ago)
JolloSoldier18/01/2020 00:05:05 OT (0D 2H 31M ago)
PiranaSoldier18/01/2020 00:05:05 OT (0D 2H 31M ago)
WatnerSoldier18/01/2020 00:05:05 OT (0D 2H 31M ago)
JimSoldier18/01/2020 00:05:05 OT (0D 2H 31M ago)
RioSoldier18/01/2020 00:05:05 OT (0D 2H 31M ago)
AralikSoldier18/01/2020 00:05:05 OT (0D 2H 31M ago)
HansSoldier18/01/2020 00:11:05 OT (0D 2H 25M ago)
VinSoldier18/01/2020 00:11:05 OT (0D 2H 25M ago)
SinopSoldier18/01/2020 00:11:05 OT (0D 2H 25M ago)
KobraSoldier18/01/2020 00:15:05 OT (0D 2H 21M ago)
AdepoSoldier18/01/2020 00:15:05 OT (0D 2H 21M ago)
TurboSoldier18/01/2020 00:15:05 OT (0D 2H 21M ago)
TorettoSoldier18/01/2020 00:15:05 OT (0D 2H 21M ago)
KuzeySoldier18/01/2020 00:15:05 OT (0D 2H 21M ago)
BeyazSoldier18/01/2020 00:20:05 OT (0D 2H 16M ago)
NandySoldier18/01/2020 00:23:05 OT (0D 2H 13M ago)
ZanjeroSoldier18/01/2020 00:23:05 OT (0D 2H 13M ago)
MarlonSoldier18/01/2020 00:23:05 OT (0D 2H 13M ago)
CarmenSoldier18/01/2020 00:23:05 OT (0D 2H 13M ago)
RensinSoldier18/01/2020 00:28:05 OT (0D 2H 8M ago)
CastroSoldier18/01/2020 00:28:05 OT (0D 2H 8M ago)
RomenSoldier18/01/2020 00:32:05 OT (0D 2H 4M ago)
EmilySoldier18/01/2020 00:42:03 OT (0D 1H 55M ago)
LaunchSoldier18/01/2020 00:46:05 OT (0D 1H 50M ago)
SinerjiSoldier18/01/2020 00:46:05 OT (0D 1H 50M ago)
JukaSoldier18/01/2020 00:53:05 OT (0D 1H 43M ago)
SebastianSoldier18/01/2020 00:57:02 OT (0D 1H 40M ago)
PktSoldier18/01/2020 00:57:02 OT (0D 1H 40M ago)
CharismaSoldier18/01/2020 01:07:05 OT (0D 1H 29M ago)
YesaSoldier18/01/2020 01:07:05 OT (0D 1H 29M ago)
KemalettinSoldier18/01/2020 01:20:05 OT (0D 1H 16M ago)
FixSoldier18/01/2020 01:20:05 OT (0D 1H 16M ago)
AwpitterSoldier18/01/2020 01:23:05 OT (0D 1H 13M ago)
LayaSoldier18/01/2020 01:23:05 OT (0D 1H 13M ago)
DondimeSoldier18/01/2020 01:29:03 OT (0D 1H 8M ago)
GunitSoldier18/01/2020 01:29:03 OT (0D 1H 8M ago)
DaniSoldier18/01/2020 01:54:05 OT (0D 0H 42M ago)
FrontoSoldier18/01/2020 01:58:03 OT (0D 0H 39M ago)
AlcaphoneSoldier18/01/2020 01:58:03 OT (0D 0H 39M ago)
SparrowSoldier18/01/2020 02:05:05 OT (0D 0H 31M ago)
SarumanSoldier18/01/2020 02:05:05 OT (0D 0H 31M ago)
KokeSoldier18/01/2020 02:05:05 OT (0D 0H 31M ago)
KraskopSoldier18/01/2020 02:10:04 OT (0D 0H 27M ago)
SonicSoldier18/01/2020 02:10:04 OT (0D 0H 27M ago)
EraSoldier18/01/2020 02:10:04 OT (0D 0H 27M ago)
DarmodySoldier18/01/2020 02:15:03 OT (0D 0H 22M ago)
CarloSoldier18/01/2020 02:15:03 OT (0D 0H 22M ago)
ArenSoldier18/01/2020 02:20:05 OT (0D 0H 16M ago)
KillswitchSoldier18/01/2020 02:20:05 OT (0D 0H 16M ago)
MilwormSoldier18/01/2020 02:20:05 OT (0D 0H 16M ago)
MastermfSoldier18/01/2020 02:31:04 OT (0D 0H 6M ago)
JjonesSoldier18/01/2020 02:36:03 OT (0D 0H 1M ago)
HeeySoldier18/01/2020 02:36:03 OT (0D 0H 1M ago)
VillanelleSoldier18/01/2020 02:36:03 OT (0D 0H 1M ago)
RoozlesSoldier18/01/2020 02:36:03 OT (0D 0H 1M ago)
TranslateSoldier18/01/2020 02:36:03 OT (0D 0H 1M ago)
FeribotSoldier18/01/2020 02:36:03 OT (0D 0H 1M ago)
CmeandozSoldier18/01/2020 02:36:03 OT (0D 0H 1M ago)
ErgerSoldier18/01/2020 02:36:03 OT (0D 0H 1M ago)
AkriSoldier18/01/2020 02:36:03 OT (0D 0H 1M ago)
EchoxxSwindler16/01/2020 15:53:05 OT (1D 10H 43M ago)
DhifofaSwindler16/01/2020 18:30:04 OT (1D 8H 7M ago)
CamukaSwindler16/01/2020 19:06:05 OT (1D 7H 30M ago)
GodSwindler16/01/2020 19:06:05 OT (1D 7H 30M ago)
TiquinhoSwindler16/01/2020 19:31:03 OT (1D 7H 6M ago)
TottiSwindler16/01/2020 20:20:05 OT (1D 6H 16M ago)
LadykillersSwindler16/01/2020 20:30:03 OT (1D 6H 7M ago)
RubySwindler16/01/2020 23:19:02 OT (1D 3H 18M ago)
OnyxSwindler17/01/2020 01:11:04 OT (1D 1H 26M ago)
ZecSwindler17/01/2020 05:00:04 OT (0D 21H 37M ago)
UnibjkSwindler17/01/2020 05:33:03 OT (0D 21H 4M ago)
ElectraSwindler17/01/2020 06:35:05 OT (0D 20H 1M ago)
AioSwindler17/01/2020 06:40:05 OT (0D 19H 56M ago)
SagarisSwindler17/01/2020 06:52:05 OT (0D 19H 44M ago)
MesqulSwindler17/01/2020 06:59:03 OT (0D 19H 38M ago)
KazukoSwindler17/01/2020 08:44:04 OT (0D 17H 53M ago)
BigSwindler17/01/2020 09:07:03 OT (0D 17H 30M ago)
LecheroSwindler17/01/2020 09:22:03 OT (0D 17H 15M ago)
AyrSwindler17/01/2020 09:41:05 OT (0D 16H 55M ago)
BlockSwindler17/01/2020 10:00:02 OT (0D 16H 37M ago)
VenomSwindler17/01/2020 10:10:03 OT (0D 16H 27M ago)
RedkitSwindler17/01/2020 10:10:03 OT (0D 16H 27M ago)
PrinceSwindler17/01/2020 11:18:05 OT (0D 15H 18M ago)
MenSwindler17/01/2020 11:27:02 OT (0D 15H 10M ago)
YamanSwindler17/01/2020 11:34:05 OT (0D 15H 2M ago)
ZopaSwindler17/01/2020 12:08:05 OT (0D 14H 28M ago)
FurionSwindler17/01/2020 12:08:05 OT (0D 14H 28M ago)
ReiSwindler17/01/2020 12:08:05 OT (0D 14H 28M ago)
SindraSwindler17/01/2020 12:14:05 OT (0D 14H 22M ago)
CanSwindler17/01/2020 12:14:05 OT (0D 14H 22M ago)
CraftSwindler17/01/2020 12:14:05 OT (0D 14H 22M ago)
AmsterdamSwindler17/01/2020 12:46:03 OT (0D 13H 51M ago)
KenSwindler17/01/2020 13:12:03 OT (0D 13H 25M ago)
DogoSwindler17/01/2020 13:20:05 OT (0D 13H 16M ago)
KirbymorganSwindler17/01/2020 13:20:05 OT (0D 13H 16M ago)
YagamiSwindler17/01/2020 13:31:05 OT (0D 13H 5M ago)
BugicSwindler17/01/2020 13:31:05 OT (0D 13H 5M ago)
CalderaSwindler17/01/2020 13:44:05 OT (0D 12H 52M ago)
HoldenSwindler17/01/2020 13:55:05 OT (0D 12H 41M ago)
WollaceSwindler17/01/2020 14:07:05 OT (0D 12H 29M ago)
TfardilhaSwindler17/01/2020 14:41:05 OT (0D 11H 55M ago)
VioletaSwindler17/01/2020 14:41:05 OT (0D 11H 55M ago)
TrSwindler17/01/2020 14:41:05 OT (0D 11H 55M ago)
JaggedSwindler17/01/2020 14:41:05 OT (0D 11H 55M ago)
SekidikaSwindler17/01/2020 14:46:03 OT (0D 11H 51M ago)
MorpheusSwindler17/01/2020 14:54:05 OT (0D 11H 42M ago)
PatronSwindler17/01/2020 15:07:04 OT (0D 11H 30M ago)
ZaykaSwindler17/01/2020 15:13:06 OT (0D 11H 23M ago)
KareemSwindler17/01/2020 15:18:03 OT (0D 11H 19M ago)
AresSwindler17/01/2020 15:18:03 OT (0D 11H 19M ago)
MisskSwindler17/01/2020 15:18:03 OT (0D 11H 19M ago)
JeezySwindler17/01/2020 15:30:05 OT (0D 11H 6M ago)
MiaSwindler17/01/2020 15:36:05 OT (0D 11H 0M ago)
BmwSwindler17/01/2020 15:40:05 OT (0D 10H 56M ago)
DelpieroSwindler17/01/2020 15:53:06 OT (0D 10H 43M ago)
TheSwindler17/01/2020 16:02:05 OT (0D 10H 34M ago)
IgorSwindler17/01/2020 16:02:05 OT (0D 10H 34M ago)
TommygunSwindler17/01/2020 16:02:05 OT (0D 10H 34M ago)
AdolfoSwindler17/01/2020 16:09:05 OT (0D 10H 27M ago)
HelSwindler17/01/2020 16:33:03 OT (0D 10H 4M ago)
WindSwindler17/01/2020 16:40:05 OT (0D 9H 56M ago)
RicharedSwindler17/01/2020 16:40:05 OT (0D 9H 56M ago)
ViserSwindler17/01/2020 16:46:05 OT (0D 9H 50M ago)
BundymansSwindler17/01/2020 16:46:05 OT (0D 9H 50M ago)
RenSwindler17/01/2020 16:46:05 OT (0D 9H 50M ago)
HercaiSwindler17/01/2020 16:53:05 OT (0D 9H 43M ago)
KobekatoSwindler17/01/2020 16:57:11 OT (0D 9H 39M ago)
KiulSwindler17/01/2020 16:57:11 OT (0D 9H 39M ago)
ElpatronSwindler17/01/2020 16:57:11 OT (0D 9H 39M ago)
CavelloSwindler17/01/2020 17:08:05 OT (0D 9H 28M ago)
DarioteSwindler17/01/2020 17:08:05 OT (0D 9H 28M ago)
KaraSwindler17/01/2020 17:12:05 OT (0D 9H 24M ago)
JazeemSwindler17/01/2020 17:12:05 OT (0D 9H 24M ago)
CiriSwindler17/01/2020 17:18:05 OT (0D 9H 18M ago)
TigressSwindler17/01/2020 17:25:05 OT (0D 9H 11M ago)
BigboySwindler17/01/2020 17:40:04 OT (0D 8H 57M ago)
MafiaturkSwindler17/01/2020 17:46:05 OT (0D 8H 50M ago)
AdestimSwindler17/01/2020 17:46:05 OT (0D 8H 50M ago)
CaligulaSwindler17/01/2020 17:46:05 OT (0D 8H 50M ago)
BubinhaSwindler17/01/2020 17:51:03 OT (0D 8H 46M ago)
SandmanSwindler17/01/2020 18:10:05 OT (0D 8H 26M ago)
LestatSwindler17/01/2020 18:10:05 OT (0D 8H 26M ago)
AdSwindler17/01/2020 18:10:05 OT (0D 8H 26M ago)
BrooklynSwindler17/01/2020 18:16:05 OT (0D 8H 20M ago)
AprilSwindler17/01/2020 18:20:05 OT (0D 8H 16M ago)
RockySwindler17/01/2020 18:43:05 OT (0D 7H 53M ago)
NonameSwindler17/01/2020 18:51:05 OT (0D 7H 45M ago)
FerrariSwindler17/01/2020 18:51:05 OT (0D 7H 45M ago)
AsterixSwindler17/01/2020 18:51:05 OT (0D 7H 45M ago)
KaperkaSwindler17/01/2020 18:57:05 OT (0D 7H 39M ago)
MajesteSwindler17/01/2020 19:03:12 OT (0D 7H 33M ago)
JhinSwindler17/01/2020 19:03:12 OT (0D 7H 33M ago)
BerlinSwindler17/01/2020 19:03:12 OT (0D 7H 33M ago)
ChavesSwindler17/01/2020 19:08:05 OT (0D 7H 28M ago)
TomSwindler17/01/2020 19:13:05 OT (0D 7H 23M ago)
ElaSwindler17/01/2020 19:17:05 OT (0D 7H 19M ago)
XertySwindler17/01/2020 19:17:05 OT (0D 7H 19M ago)
TonimontanaSwindler17/01/2020 19:17:05 OT (0D 7H 19M ago)
AkinciSwindler17/01/2020 19:17:05 OT (0D 7H 19M ago)
CincihocaSwindler17/01/2020 19:22:05 OT (0D 7H 14M ago)
ThorondorSwindler17/01/2020 19:22:05 OT (0D 7H 14M ago)
IhtiyarSwindler17/01/2020 19:22:05 OT (0D 7H 14M ago)
ShelbySwindler17/01/2020 19:26:05 OT (0D 7H 10M ago)
KharonSwindler17/01/2020 19:26:05 OT (0D 7H 10M ago)
VictorySwindler17/01/2020 19:31:05 OT (0D 7H 5M ago)
LegendSwindler17/01/2020 19:31:05 OT (0D 7H 5M ago)
NzmcanSwindler17/01/2020 19:37:05 OT (0D 6H 59M ago)
CuboneSwindler17/01/2020 19:37:05 OT (0D 6H 59M ago)
TiltSwindler17/01/2020 19:37:05 OT (0D 6H 59M ago)
BalrogSwindler17/01/2020 19:42:06 OT (0D 6H 54M ago)
NekrofiliSwindler17/01/2020 19:45:11 OT (0D 6H 51M ago)
SuiSwindler17/01/2020 19:52:05 OT (0D 6H 44M ago)
KeskinSwindler17/01/2020 19:52:05 OT (0D 6H 44M ago)
PyhtonistaSwindler17/01/2020 19:52:05 OT (0D 6H 44M ago)
LalalaSwindler17/01/2020 20:00:05 OT (0D 6H 36M ago)
AaSwindler17/01/2020 20:00:05 OT (0D 6H 36M ago)
HardlineSwindler17/01/2020 20:04:05 OT (0D 6H 32M ago)
ElarSwindler17/01/2020 20:11:03 OT (0D 6H 26M ago)
BawercSwindler17/01/2020 20:11:03 OT (0D 6H 26M ago)
NegreanuSwindler17/01/2020 20:17:03 OT (0D 6H 20M ago)
AlperenSwindler17/01/2020 20:17:03 OT (0D 6H 20M ago)
NoluyolanSwindler17/01/2020 20:17:03 OT (0D 6H 20M ago)
KapSwindler17/01/2020 20:27:04 OT (0D 6H 10M ago)
PokerSwindler17/01/2020 20:33:05 OT (0D 6H 3M ago)
CiciSwindler17/01/2020 20:38:05 OT (0D 5H 58M ago)
CioSwindler17/01/2020 20:38:05 OT (0D 5H 58M ago)
SerfloorSwindler17/01/2020 20:38:05 OT (0D 5H 58M ago)
StationSwindler17/01/2020 20:42:05 OT (0D 5H 54M ago)
DarudeSwindler17/01/2020 20:42:05 OT (0D 5H 54M ago)
FreezeSwindler17/01/2020 20:46:05 OT (0D 5H 50M ago)
TunaSwindler17/01/2020 20:46:05 OT (0D 5H 50M ago)
SandaneSwindler17/01/2020 20:46:05 OT (0D 5H 50M ago)
HartjeSwindler17/01/2020 20:46:05 OT (0D 5H 50M ago)
LebronSwindler17/01/2020 20:46:05 OT (0D 5H 50M ago)
CavendishSwindler17/01/2020 20:56:05 OT (0D 5H 40M ago)
PiaSwindler17/01/2020 20:56:05 OT (0D 5H 40M ago)
AlbanianSwindler17/01/2020 21:01:05 OT (0D 5H 35M ago)
PserroSwindler17/01/2020 21:01:05 OT (0D 5H 35M ago)
RevoltSwindler17/01/2020 21:01:05 OT (0D 5H 35M ago)
NinjaboySwindler17/01/2020 21:01:05 OT (0D 5H 35M ago)
KopuzSwindler17/01/2020 21:01:05 OT (0D 5H 35M ago)
ArceusSwindler17/01/2020 21:07:05 OT (0D 5H 29M ago)
AsturiasSwindler17/01/2020 21:07:05 OT (0D 5H 29M ago)
OrthiaSwindler17/01/2020 21:12:06 OT (0D 5H 24M ago)
ZedascouvesSwindler17/01/2020 21:12:06 OT (0D 5H 24M ago)
XxmrcxxSwindler17/01/2020 21:12:06 OT (0D 5H 24M ago)
IddaciiSwindler17/01/2020 21:12:06 OT (0D 5H 24M ago)
PsSwindler17/01/2020 21:19:05 OT (0D 5H 17M ago)
BlissSwindler17/01/2020 21:23:05 OT (0D 5H 13M ago)
MickeySwindler17/01/2020 21:23:05 OT (0D 5H 13M ago)
LazukaSwindler17/01/2020 21:23:05 OT (0D 5H 13M ago)
RussellSwindler17/01/2020 21:23:05 OT (0D 5H 13M ago)
CheeseSwindler17/01/2020 21:29:03 OT (0D 5H 8M ago)
ProssSwindler17/01/2020 21:32:06 OT (0D 5H 4M ago)
MarieSwindler17/01/2020 21:32:06 OT (0D 5H 4M ago)
LancersSwindler17/01/2020 21:40:03 OT (0D 4H 57M ago)
CylconerSwindler17/01/2020 21:44:05 OT (0D 4H 52M ago)
GheistSwindler17/01/2020 21:44:05 OT (0D 4H 52M ago)
JqSwindler17/01/2020 21:44:05 OT (0D 4H 52M ago)
BartSwindler17/01/2020 21:44:05 OT (0D 4H 52M ago)
LaissezSwindler17/01/2020 21:49:02 OT (0D 4H 48M ago)
BattleSwindler17/01/2020 21:49:02 OT (0D 4H 48M ago)
PinkSwindler17/01/2020 21:55:05 OT (0D 4H 41M ago)
FethSwindler17/01/2020 21:55:05 OT (0D 4H 41M ago)
DannySwindler17/01/2020 21:59:03 OT (0D 4H 38M ago)
LokiSwindler17/01/2020 21:59:03 OT (0D 4H 38M ago)
MemSwindler17/01/2020 21:59:03 OT (0D 4H 38M ago)
WoodrawSwindler17/01/2020 21:59:03 OT (0D 4H 38M ago)
RanchoSwindler17/01/2020 22:02:05 OT (0D 4H 34M ago)
LostSwindler17/01/2020 22:02:05 OT (0D 4H 34M ago)
MadmanSwindler17/01/2020 22:02:05 OT (0D 4H 34M ago)
SpitzzSwindler17/01/2020 22:05:03 OT (0D 4H 32M ago)
NarcosisSwindler17/01/2020 22:05:03 OT (0D 4H 32M ago)
MarjinalSwindler17/01/2020 22:05:03 OT (0D 4H 32M ago)
MantuSwindler17/01/2020 22:05:03 OT (0D 4H 32M ago)
GoldSwindler17/01/2020 22:05:03 OT (0D 4H 32M ago)
ArumSwindler17/01/2020 22:12:02 OT (0D 4H 25M ago)
JessieSwindler17/01/2020 22:12:02 OT (0D 4H 25M ago)
AstaSwindler17/01/2020 22:12:02 OT (0D 4H 25M ago)
FiyakaSwindler17/01/2020 22:12:02 OT (0D 4H 25M ago)
GenosSwindler17/01/2020 22:12:02 OT (0D 4H 25M ago)
BuffonSwindler17/01/2020 22:12:02 OT (0D 4H 25M ago)
FertodSwindler17/01/2020 22:15:06 OT (0D 4H 21M ago)
AryaSwindler17/01/2020 22:18:05 OT (0D 4H 18M ago)
LgtSwindler17/01/2020 22:18:05 OT (0D 4H 18M ago)
FurySwindler17/01/2020 22:18:05 OT (0D 4H 18M ago)
EasySwindler17/01/2020 22:18:05 OT (0D 4H 18M ago)
AristoSwindler17/01/2020 22:18:05 OT (0D 4H 18M ago)
HerseyekarsiSwindler17/01/2020 22:18:05 OT (0D 4H 18M ago)
UnabomberSwindler17/01/2020 22:26:03 OT (0D 4H 11M ago)
BrickleberrySwindler17/01/2020 22:29:05 OT (0D 4H 7M ago)
VaderSwindler17/01/2020 22:29:05 OT (0D 4H 7M ago)
ErayySwindler17/01/2020 22:29:05 OT (0D 4H 7M ago)
NaohSwindler17/01/2020 22:33:02 OT (0D 4H 4M ago)
AliSwindler17/01/2020 22:33:02 OT (0D 4H 4M ago)
KarlossSwindler17/01/2020 22:33:02 OT (0D 4H 4M ago)
HereSwindler17/01/2020 22:33:02 OT (0D 4H 4M ago)
DearSwindler17/01/2020 22:33:02 OT (0D 4H 4M ago)
MamiSwindler17/01/2020 22:33:02 OT (0D 4H 4M ago)
MqSwindler17/01/2020 22:39:05 OT (0D 3H 57M ago)
SupoentjeSwindler17/01/2020 22:39:05 OT (0D 3H 57M ago)
RageSwindler17/01/2020 22:39:05 OT (0D 3H 57M ago)
LantSwindler17/01/2020 22:46:05 OT (0D 3H 50M ago)
BuroSwindler17/01/2020 22:50:02 OT (0D 3H 47M ago)
DoarleSwindler17/01/2020 22:50:02 OT (0D 3H 47M ago)
SoulmanSwindler17/01/2020 22:50:02 OT (0D 3H 47M ago)
TackoSwindler17/01/2020 22:57:06 OT (0D 3H 39M ago)
KillerfreakSwindler17/01/2020 22:57:06 OT (0D 3H 39M ago)
ChangrettaSwindler17/01/2020 22:57:06 OT (0D 3H 39M ago)
JamesSwindler17/01/2020 22:57:06 OT (0D 3H 39M ago)
FreudSwindler17/01/2020 22:57:06 OT (0D 3H 39M ago)
YlvaSwindler17/01/2020 22:57:06 OT (0D 3H 39M ago)
KhalSwindler17/01/2020 22:57:06 OT (0D 3H 39M ago)
SundeepSwindler17/01/2020 23:05:05 OT (0D 3H 31M ago)
FonoSwindler17/01/2020 23:05:05 OT (0D 3H 31M ago)
RuffSwindler17/01/2020 23:05:05 OT (0D 3H 31M ago)
LessSwindler17/01/2020 23:10:05 OT (0D 3H 26M ago)
SoverSwindler17/01/2020 23:10:05 OT (0D 3H 26M ago)
DecoloSwindler17/01/2020 23:10:05 OT (0D 3H 26M ago)
EzekielSwindler17/01/2020 23:10:05 OT (0D 3H 26M ago)
MutmainSwindler17/01/2020 23:17:04 OT (0D 3H 20M ago)
HasocanSwindler17/01/2020 23:17:04 OT (0D 3H 20M ago)
MadmenSwindler17/01/2020 23:17:04 OT (0D 3H 20M ago)
NghomeSwindler17/01/2020 23:25:05 OT (0D 3H 11M ago)
CrimsonSwindler17/01/2020 23:25:05 OT (0D 3H 11M ago)
KenySwindler17/01/2020 23:25:05 OT (0D 3H 11M ago)
ChikoSwindler17/01/2020 23:25:05 OT (0D 3H 11M ago)
ThieuSwindler17/01/2020 23:25:05 OT (0D 3H 11M ago)
ChiliSwindler17/01/2020 23:25:05 OT (0D 3H 11M ago)
YasinSwindler17/01/2020 23:25:05 OT (0D 3H 11M ago)
KurosakiSwindler17/01/2020 23:31:03 OT (0D 3H 6M ago)
AngularSwindler17/01/2020 23:31:03 OT (0D 3H 6M ago)
ArtizSwindler17/01/2020 23:36:05 OT (0D 3H 0M ago)
StarSwindler17/01/2020 23:36:05 OT (0D 3H 0M ago)
EdaSwindler17/01/2020 23:36:05 OT (0D 3H 0M ago)
MarinSwindler17/01/2020 23:36:05 OT (0D 3H 0M ago)
ApsemoSwindler17/01/2020 23:40:05 OT (0D 2H 56M ago)
BallerSwindler17/01/2020 23:40:05 OT (0D 2H 56M ago)
ChaosSwindler17/01/2020 23:40:05 OT (0D 2H 56M ago)
SakuraSwindler17/01/2020 23:40:05 OT (0D 2H 56M ago)
MerciSwindler17/01/2020 23:45:04 OT (0D 2H 52M ago)
ZidaneSwindler17/01/2020 23:45:04 OT (0D 2H 52M ago)
MiptSwindler17/01/2020 23:50:03 OT (0D 2H 47M ago)
NineSwindler17/01/2020 23:50:03 OT (0D 2H 47M ago)
JesusSwindler17/01/2020 23:50:03 OT (0D 2H 47M ago)
DuyguSwindler17/01/2020 23:50:03 OT (0D 2H 47M ago)
MekaSwindler17/01/2020 23:55:05 OT (0D 2H 41M ago)
TopboySwindler17/01/2020 23:55:05 OT (0D 2H 41M ago)
PoopsieSwindler17/01/2020 23:55:05 OT (0D 2H 41M ago)
MobsterkeeSwindler17/01/2020 23:55:05 OT (0D 2H 41M ago)
KloppSwindler18/01/2020 00:02:03 OT (0D 2H 35M ago)
MuismatSwindler18/01/2020 00:05:05 OT (0D 2H 31M ago)
TrnanSwindler18/01/2020 00:15:05 OT (0D 2H 21M ago)
PerfectoSwindler18/01/2020 00:15:05 OT (0D 2H 21M ago)
DescoSwindler18/01/2020 00:15:05 OT (0D 2H 21M ago)
JrSwindler18/01/2020 00:15:05 OT (0D 2H 21M ago)
HectorSwindler18/01/2020 00:15:05 OT (0D 2H 21M ago)
OdinSwindler18/01/2020 00:15:05 OT (0D 2H 21M ago)
WellSwindler18/01/2020 00:15:05 OT (0D 2H 21M ago)
PlantronicsSwindler18/01/2020 00:15:05 OT (0D 2H 21M ago)
TitanicSwindler18/01/2020 00:15:05 OT (0D 2H 21M ago)
JosesosaSwindler18/01/2020 00:15:05 OT (0D 2H 21M ago)
IkkuhSwindler18/01/2020 00:15:05 OT (0D 2H 21M ago)
ColdzeraSwindler18/01/2020 00:15:05 OT (0D 2H 21M ago)
ArrowSwindler18/01/2020 00:20:05 OT (0D 2H 16M ago)
SelenaSwindler18/01/2020 00:20:05 OT (0D 2H 16M ago)
BettelheimSwindler18/01/2020 00:20:05 OT (0D 2H 16M ago)
EmilioSwindler18/01/2020 00:20:05 OT (0D 2H 16M ago)
AheySwindler18/01/2020 00:20:05 OT (0D 2H 16M ago)
RiskySwindler18/01/2020 00:20:05 OT (0D 2H 16M ago)
CanogoSwindler18/01/2020 00:23:05 OT (0D 2H 13M ago)
UpSwindler18/01/2020 00:28:05 OT (0D 2H 8M ago)
RiotSwindler18/01/2020 00:28:05 OT (0D 2H 8M ago)
DangerSwindler18/01/2020 00:32:05 OT (0D 2H 4M ago)
ZatSwindler18/01/2020 00:32:05 OT (0D 2H 4M ago)
KimyonSwindler18/01/2020 00:32:05 OT (0D 2H 4M ago)
RaposaSwindler18/01/2020 00:32:05 OT (0D 2H 4M ago)
EagleSwindler18/01/2020 00:32:05 OT (0D 2H 4M ago)
BornSwindler18/01/2020 00:32:05 OT (0D 2H 4M ago)
CelasunSwindler18/01/2020 00:38:05 OT (0D 1H 58M ago)
FerraraSwindler18/01/2020 00:38:05 OT (0D 1H 58M ago)
JustsenssSwindler18/01/2020 00:42:03 OT (0D 1H 55M ago)
WolfjeSwindler18/01/2020 00:46:05 OT (0D 1H 50M ago)
WheatusSwindler18/01/2020 00:46:05 OT (0D 1H 50M ago)
KarsSwindler18/01/2020 00:46:05 OT (0D 1H 50M ago)
SuretSwindler18/01/2020 00:46:05 OT (0D 1H 50M ago)
TefoSwindler18/01/2020 00:46:05 OT (0D 1H 50M ago)
PabloSwindler18/01/2020 00:53:05 OT (0D 1H 43M ago)
KakaSwindler18/01/2020 00:53:05 OT (0D 1H 43M ago)
AmySwindler18/01/2020 00:57:02 OT (0D 1H 40M ago)
BriggsSwindler18/01/2020 01:01:02 OT (0D 1H 36M ago)
ChickSwindler18/01/2020 01:01:02 OT (0D 1H 36M ago)
BoynerSwindler18/01/2020 01:01:02 OT (0D 1H 36M ago)
LenceboSwindler18/01/2020 01:07:05 OT (0D 1H 29M ago)
LoveSwindler18/01/2020 01:07:05 OT (0D 1H 29M ago)
NamerSwindler18/01/2020 01:23:05 OT (0D 1H 13M ago)
YeaSwindler18/01/2020 01:23:05 OT (0D 1H 13M ago)
CharSwindler18/01/2020 01:29:03 OT (0D 1H 8M ago)
NaciSwindler18/01/2020 01:29:03 OT (0D 1H 8M ago)
CacaSwindler18/01/2020 01:29:03 OT (0D 1H 8M ago)
NfmrcSwindler18/01/2020 01:33:04 OT (0D 1H 4M ago)
ApollyonSwindler18/01/2020 01:33:04 OT (0D 1H 4M ago)
SatoSwindler18/01/2020 01:38:03 OT (0D 0H 59M ago)
EmmiSwindler18/01/2020 01:38:03 OT (0D 0H 59M ago)
RamsfirSwindler18/01/2020 01:43:02 OT (0D 0H 54M ago)
MaestroSwindler18/01/2020 01:48:03 OT (0D 0H 49M ago)
TigaSwindler18/01/2020 01:54:05 OT (0D 0H 42M ago)
ShurdaSwindler18/01/2020 01:54:05 OT (0D 0H 42M ago)
BaltaSwindler18/01/2020 01:54:05 OT (0D 0H 42M ago)
DesignerSwindler18/01/2020 01:54:05 OT (0D 0H 42M ago)
MoonSwindler18/01/2020 01:58:03 OT (0D 0H 39M ago)
DementorSwindler18/01/2020 01:58:03 OT (0D 0H 39M ago)
FadeSwindler18/01/2020 02:05:05 OT (0D 0H 31M ago)
DwightSwindler18/01/2020 02:05:05 OT (0D 0H 31M ago)
JoeySwindler18/01/2020 02:05:05 OT (0D 0H 31M ago)
CutterSwindler18/01/2020 02:05:05 OT (0D 0H 31M ago)
LaneliSwindler18/01/2020 02:05:05 OT (0D 0H 31M ago)
RaskolnikovSwindler18/01/2020 02:10:04 OT (0D 0H 27M ago)
KeeleySwindler18/01/2020 02:10:04 OT (0D 0H 27M ago)
MirageSwindler18/01/2020 02:10:04 OT (0D 0H 27M ago)
DarullerSwindler18/01/2020 02:10:04 OT (0D 0H 27M ago)
TekSwindler18/01/2020 02:15:03 OT (0D 0H 22M ago)
PhoenixSwindler18/01/2020 02:20:05 OT (0D 0H 16M ago)
HuddoggSwindler18/01/2020 02:20:05 OT (0D 0H 16M ago)
HelmSwindler18/01/2020 02:27:05 OT (0D 0H 9M ago)
ShiftSwindler18/01/2020 02:27:05 OT (0D 0H 9M ago)
WilliamSwindler18/01/2020 02:31:04 OT (0D 0H 6M ago)
RaindethSwindler18/01/2020 02:31:04 OT (0D 0H 6M ago)
MastermindSwindler18/01/2020 02:31:04 OT (0D 0H 6M ago)
BjkSwindler18/01/2020 02:31:04 OT (0D 0H 6M ago)
EmxSwindler18/01/2020 02:36:03 OT (0D 0H 1M ago)
CiganitoSwindler18/01/2020 02:36:03 OT (0D 0H 1M ago)
BeckSwindler18/01/2020 02:36:03 OT (0D 0H 1M ago)
VuralSwindler18/01/2020 02:36:03 OT (0D 0H 1M ago)
MesihSwindler18/01/2020 02:36:03 OT (0D 0H 1M ago)
BukiiiiSwindler18/01/2020 02:36:03 OT (0D 0H 1M ago)
PlexSwindler18/01/2020 02:36:03 OT (0D 0H 1M ago)
TequilaSwindler18/01/2020 02:36:03 OT (0D 0H 1M ago)
KasapSwindler18/01/2020 02:36:03 OT (0D 0H 1M ago)
YenogSwindler18/01/2020 02:36:03 OT (0D 0H 1M ago)
FreidchikenSwindler18/01/2020 02:36:03 OT (0D 0H 1M ago)
ScroogeSwindler18/01/2020 02:36:03 OT (0D 0H 1M ago)
YesilSwindler18/01/2020 02:36:03 OT (0D 0H 1M ago)
BloodSwindler18/01/2020 02:36:03 OT (0D 0H 1M ago)
TobiSwindler18/01/2020 02:36:03 OT (0D 0H 1M ago)
MaroniSwindler18/01/2020 02:36:03 OT (0D 0H 1M ago)
TeachSwindler18/01/2020 02:36:03 OT (0D 0H 1M ago)
DefianceSwindler18/01/2020 02:36:03 OT (0D 0H 1M ago)
VionaSwindler18/01/2020 02:36:03 OT (0D 0H 1M ago)
EdgarSwindler18/01/2020 02:36:03 OT (0D 0H 1M ago)
VladSwindler18/01/2020 02:36:03 OT (0D 0H 1M ago)
KasperSwindler18/01/2020 02:36:03 OT (0D 0H 1M ago)
TomynucklesSwindler18/01/2020 02:36:03 OT (0D 0H 1M ago)
BelcastroSwindler18/01/2020 02:36:03 OT (0D 0H 1M ago)
MadsoulAssassin17/01/2020 07:39:03 OT (0D 18H 58M ago)
RevengeAssassin17/01/2020 09:07:03 OT (0D 17H 30M ago)
BemteviAssassin17/01/2020 09:56:05 OT (0D 16H 40M ago)
BertanAssassin17/01/2020 10:10:03 OT (0D 16H 27M ago)
SkollAssassin17/01/2020 10:10:03 OT (0D 16H 27M ago)
PoseidonAssassin17/01/2020 11:09:04 OT (0D 15H 28M ago)
MadAssassin17/01/2020 11:09:04 OT (0D 15H 28M ago)
TaksimAssassin17/01/2020 11:09:04 OT (0D 15H 28M ago)
AizenAssassin17/01/2020 12:02:03 OT (0D 14H 35M ago)
AubAssassin17/01/2020 12:39:05 OT (0D 13H 57M ago)
MonyetAssassin17/01/2020 13:44:05 OT (0D 12H 52M ago)
CumaliAssassin17/01/2020 14:07:05 OT (0D 12H 29M ago)
ArdacanAssassin17/01/2020 14:26:06 OT (0D 12H 10M ago)
YaqupAssassin17/01/2020 14:31:05 OT (0D 12H 5M ago)
GerrenAssassin17/01/2020 14:34:05 OT (0D 12H 2M ago)
RockAssassin17/01/2020 15:13:06 OT (0D 11H 23M ago)
SchakalAssassin17/01/2020 15:30:05 OT (0D 11H 6M ago)
KakashiAssassin17/01/2020 15:43:05 OT (0D 10H 53M ago)
GomezAssassin17/01/2020 15:43:05 OT (0D 10H 53M ago)
SmaugAssassin17/01/2020 15:43:05 OT (0D 10H 53M ago)
TorresAssassin17/01/2020 16:09:05 OT (0D 10H 27M ago)
GrimAssassin17/01/2020 16:09:05 OT (0D 10H 27M ago)
HardwellAssassin17/01/2020 16:09:05 OT (0D 10H 27M ago)
IstanbulAssassin17/01/2020 16:28:05 OT (0D 10H 8M ago)
AhuAssassin17/01/2020 16:33:03 OT (0D 10H 4M ago)
SerseriwAssassin17/01/2020 16:46:05 OT (0D 9H 50M ago)
MatadorAssassin17/01/2020 17:08:05 OT (0D 9H 28M ago)
PessimistAssassin17/01/2020 17:32:05 OT (0D 9H 4M ago)
XnxxAssassin17/01/2020 17:40:04 OT (0D 8H 57M ago)
LazkillAssassin17/01/2020 18:00:05 OT (0D 8H 36M ago)
AriAssassin17/01/2020 18:16:05 OT (0D 8H 20M ago)
DociAssassin17/01/2020 18:27:04 OT (0D 8H 10M ago)
QzAssassin17/01/2020 18:39:05 OT (0D 7H 57M ago)
JesseAssassin17/01/2020 18:39:05 OT (0D 7H 57M ago)
ReddingtonAssassin17/01/2020 18:39:05 OT (0D 7H 57M ago)
StewieAssassin17/01/2020 18:43:05 OT (0D 7H 53M ago)
BanditAssassin17/01/2020 18:47:06 OT (0D 7H 49M ago)
BurnAssassin17/01/2020 18:47:06 OT (0D 7H 49M ago)
VoltAssassin17/01/2020 18:51:05 OT (0D 7H 45M ago)
ArtukAssassin17/01/2020 18:57:05 OT (0D 7H 39M ago)
BeaAssassin17/01/2020 18:57:05 OT (0D 7H 39M ago)
StevorAssassin17/01/2020 19:03:12 OT (0D 7H 33M ago)
FoxAssassin17/01/2020 19:17:05 OT (0D 7H 19M ago)
RifkeiAssassin17/01/2020 19:22:05 OT (0D 7H 14M ago)
OlifantjeAssassin17/01/2020 19:26:05 OT (0D 7H 10M ago)
FridiumAssassin17/01/2020 19:26:05 OT (0D 7H 10M ago)
BonezAssassin17/01/2020 19:26:05 OT (0D 7H 10M ago)
HuhuAssassin17/01/2020 19:26:05 OT (0D 7H 10M ago)
IboAssassin17/01/2020 19:31:05 OT (0D 7H 5M ago)
ShamanAssassin17/01/2020 19:31:05 OT (0D 7H 5M ago)
TchaneAssassin17/01/2020 19:31:05 OT (0D 7H 5M ago)
AmcaAssassin17/01/2020 19:31:05 OT (0D 7H 5M ago)
PresaAssassin17/01/2020 19:31:05 OT (0D 7H 5M ago)
SkirAssassin17/01/2020 19:37:05 OT (0D 6H 59M ago)
UrgotAssassin17/01/2020 19:37:05 OT (0D 6H 59M ago)
GigiAssassin17/01/2020 19:37:05 OT (0D 6H 59M ago)
CoachAssassin17/01/2020 19:37:05 OT (0D 6H 59M ago)
AmaterasuAssassin17/01/2020 19:37:05 OT (0D 6H 59M ago)
ReturnAssassin17/01/2020 19:37:05 OT (0D 6H 59M ago)
SpinzaoAssassin17/01/2020 19:37:05 OT (0D 6H 59M ago)
TitanAssassin17/01/2020 19:37:05 OT (0D 6H 59M ago)
GenAssassin17/01/2020 19:45:11 OT (0D 6H 51M ago)
JaxAssassin17/01/2020 19:45:11 OT (0D 6H 51M ago)
EulerAssassin17/01/2020 19:45:11 OT (0D 6H 51M ago)
HelboyAssassin17/01/2020 19:52:05 OT (0D 6H 44M ago)
ValadranAssassin17/01/2020 19:52:05 OT (0D 6H 44M ago)
DunkelheitAssassin17/01/2020 19:52:05 OT (0D 6H 44M ago)
OflyyAssassin17/01/2020 19:52:05 OT (0D 6H 44M ago)
PolizeiAssassin17/01/2020 19:52:05 OT (0D 6H 44M ago)
AhhbubenAssassin17/01/2020 19:52:05 OT (0D 6H 44M ago)
LaraAssassin17/01/2020 20:04:05 OT (0D 6H 32M ago)
ParsAssassin17/01/2020 20:04:05 OT (0D 6H 32M ago)
AyaAssassin17/01/2020 20:11:03 OT (0D 6H 26M ago)
CinsAssassin17/01/2020 20:11:03 OT (0D 6H 26M ago)
ExileAssassin17/01/2020 20:17:03 OT (0D 6H 20M ago)
DaenerysAssassin17/01/2020 20:17:03 OT (0D 6H 20M ago)
SansaAssassin17/01/2020 20:17:03 OT (0D 6H 20M ago)
LagerthaAssassin17/01/2020 20:17:03 OT (0D 6H 20M ago)
GoAssassin17/01/2020 20:17:03 OT (0D 6H 20M ago)
KnightAssassin17/01/2020 20:21:02 OT (0D 6H 16M ago)
AmonraAssassin17/01/2020 20:21:02 OT (0D 6H 16M ago)
FilterAssassin17/01/2020 20:21:02 OT (0D 6H 16M ago)
BloodandroseAssassin17/01/2020 20:27:04 OT (0D 6H 10M ago)
KaradumanAssassin17/01/2020 20:27:04 OT (0D 6H 10M ago)
TirvanaAssassin17/01/2020 20:27:04 OT (0D 6H 10M ago)
AtesAssassin17/01/2020 20:27:04 OT (0D 6H 10M ago)
BoaAssassin17/01/2020 20:27:04 OT (0D 6H 10M ago)
MaruAssassin17/01/2020 20:27:04 OT (0D 6H 10M ago)
WarriorAssassin17/01/2020 20:33:05 OT (0D 6H 3M ago)
FaramirAssassin17/01/2020 20:33:05 OT (0D 6H 3M ago)
BabazulaAssassin17/01/2020 20:38:05 OT (0D 5H 58M ago)
TmAssassin17/01/2020 20:38:05 OT (0D 5H 58M ago)
ToughAssassin17/01/2020 20:38:05 OT (0D 5H 58M ago)
MercuryAssassin17/01/2020 20:38:05 OT (0D 5H 58M ago)
SefAssassin17/01/2020 20:38:05 OT (0D 5H 58M ago)
PertAssassin17/01/2020 20:42:05 OT (0D 5H 54M ago)
MeraAssassin17/01/2020 20:42:05 OT (0D 5H 54M ago)
BraveAssassin17/01/2020 20:46:05 OT (0D 5H 50M ago)
CutawayAssassin17/01/2020 20:46:05 OT (0D 5H 50M ago)
JoasAssassin17/01/2020 20:46:05 OT (0D 5H 50M ago)
MarxAssassin17/01/2020 20:46:05 OT (0D 5H 50M ago)
KingsizeAssassin17/01/2020 20:56:05 OT (0D 5H 40M ago)
RasitAssassin17/01/2020 20:56:05 OT (0D 5H 40M ago)
AliekberAssassin17/01/2020 20:56:05 OT (0D 5H 40M ago)
HayaletAssassin17/01/2020 20:56:05 OT (0D 5H 40M ago)
BrolinAssassin17/01/2020 21:01:05 OT (0D 5H 35M ago)
FearAssassin17/01/2020 21:01:05 OT (0D 5H 35M ago)
MerryAssassin17/01/2020 21:01:05 OT (0D 5H 35M ago)
MinatoAssassin17/01/2020 21:01:05 OT (0D 5H 35M ago)
EysAssassin17/01/2020 21:01:05 OT (0D 5H 35M ago)
BossgAssassin17/01/2020 21:01:05 OT (0D 5H 35M ago)
ValiAssassin17/01/2020 21:01:05 OT (0D 5H 35M ago)
BubblegumAssassin17/01/2020 21:07:05 OT (0D 5H 29M ago)
SupporterAssassin17/01/2020 21:07:05 OT (0D 5H 29M ago)
ManeAssassin17/01/2020 21:07:05 OT (0D 5H 29M ago)
HelperAssassin17/01/2020 21:07:05 OT (0D 5H 29M ago)
SaneAssassin17/01/2020 21:07:05 OT (0D 5H 29M ago)
AlessandroAssassin17/01/2020 21:07:05 OT (0D 5H 29M ago)
IrisAssassin17/01/2020 21:07:05 OT (0D 5H 29M ago)
HardyAssassin17/01/2020 21:07:05 OT (0D 5H 29M ago)
DavidoffAssassin17/01/2020 21:07:05 OT (0D 5H 29M ago)
DonjakerAssassin17/01/2020 21:12:06 OT (0D 5H 24M ago)
BossAssassin17/01/2020 21:12:06 OT (0D 5H 24M ago)
SnowAssassin17/01/2020 21:12:06 OT (0D 5H 24M ago)
AratronAssassin17/01/2020 21:12:06 OT (0D 5H 24M ago)
SeyhsamilAssassin17/01/2020 21:12:06 OT (0D 5H 24M ago)
LeoAssassin17/01/2020 21:12:06 OT (0D 5H 24M ago)
DadasAssassin17/01/2020 21:12:06 OT (0D 5H 24M ago)
CukumoyukAssassin17/01/2020 21:12:06 OT (0D 5H 24M ago)
FastAssassin17/01/2020 21:19:05 OT (0D 5H 17M ago)
MiAssassin17/01/2020 21:19:05 OT (0D 5H 17M ago)
DayiAssassin17/01/2020 21:19:05 OT (0D 5H 17M ago)
AmarokAssassin17/01/2020 21:19:05 OT (0D 5H 17M ago)
GabbroAssassin17/01/2020 21:19:05 OT (0D 5H 17M ago)
HenkieAssassin17/01/2020 21:23:05 OT (0D 5H 13M ago)
YenneferAssassin17/01/2020 21:23:05 OT (0D 5H 13M ago)
SenkoAssassin17/01/2020 21:23:05 OT (0D 5H 13M ago)
ShuruAssassin17/01/2020 21:23:05 OT (0D 5H 13M ago)
BdbackAssassin17/01/2020 21:23:05 OT (0D 5H 13M ago)
JackAssassin17/01/2020 21:29:03 OT (0D 5H 8M ago)
ArwenAssassin17/01/2020 21:32:06 OT (0D 5H 4M ago)
LaquicaAssassin17/01/2020 21:32:06 OT (0D 5H 4M ago)
IversonAssassin17/01/2020 21:32:06 OT (0D 5H 4M ago)
MorientesAssassin17/01/2020 21:32:06 OT (0D 5H 4M ago)
ParzivalAssassin17/01/2020 21:32:06 OT (0D 5H 4M ago)
FuseAssassin17/01/2020 21:32:06 OT (0D 5H 4M ago)
CaeliusAssassin17/01/2020 21:32:06 OT (0D 5H 4M ago)
DelikanliAssassin17/01/2020 21:32:06 OT (0D 5H 4M ago)
LazAssassin17/01/2020 21:32:06 OT (0D 5H 4M ago)
KalichAssassin17/01/2020 21:32:06 OT (0D 5H 4M ago)
TrunksAssassin17/01/2020 21:40:03 OT (0D 4H 57M ago)
SemcetAssassin17/01/2020 21:40:03 OT (0D 4H 57M ago)
EusAssassin17/01/2020 21:40:03 OT (0D 4H 57M ago)
LobanjicaAssassin17/01/2020 21:44:05 OT (0D 4H 52M ago)
GarciaAssassin17/01/2020 21:44:05 OT (0D 4H 52M ago)
BecoolAssassin17/01/2020 21:44:05 OT (0D 4H 52M ago)
KenwayAssassin17/01/2020 21:49:02 OT (0D 4H 48M ago)
JonAssassin17/01/2020 21:49:02 OT (0D 4H 48M ago)
SeckinAssassin17/01/2020 21:49:02 OT (0D 4H 48M ago)
MaggioranaAssassin17/01/2020 21:49:02 OT (0D 4H 48M ago)
HymieAssassin17/01/2020 21:49:02 OT (0D 4H 48M ago)
GekkehusAssassin17/01/2020 21:49:02 OT (0D 4H 48M ago)
UrulokiAssassin17/01/2020 21:49:02 OT (0D 4H 48M ago)
FrodoAssassin17/01/2020 21:49:02 OT (0D 4H 48M ago)
HunterAssassin17/01/2020 21:55:05 OT (0D 4H 41M ago)
ZibidiAssassin17/01/2020 21:55:05 OT (0D 4H 41M ago)
RefoAssassin17/01/2020 21:55:05 OT (0D 4H 41M ago)
MimozaAssassin17/01/2020 21:59:03 OT (0D 4H 38M ago)
SauronAssassin17/01/2020 21:59:03 OT (0D 4H 38M ago)
IvyAssassin17/01/2020 22:02:05 OT (0D 4H 34M ago)
VitoAssassin17/01/2020 22:02:05 OT (0D 4H 34M ago)
PortjeeeAssassin17/01/2020 22:05:03 OT (0D 4H 32M ago)
OliverAssassin17/01/2020 22:05:03 OT (0D 4H 32M ago)
SakultaAssassin17/01/2020 22:05:03 OT (0D 4H 32M ago)
FinnAssassin17/01/2020 22:05:03 OT (0D 4H 32M ago)
NirvanaAssassin17/01/2020 22:05:03 OT (0D 4H 32M ago)
BeastAssassin17/01/2020 22:05:03 OT (0D 4H 32M ago)
SlentAssassin17/01/2020 22:05:03 OT (0D 4H 32M ago)
AnchovyAssassin17/01/2020 22:05:03 OT (0D 4H 32M ago)
ImpulszAssassin17/01/2020 22:05:03 OT (0D 4H 32M ago)
SolracAssassin17/01/2020 22:05:03 OT (0D 4H 32M ago)
EklutnaAssassin17/01/2020 22:05:03 OT (0D 4H 32M ago)
CheeseheadAssassin17/01/2020 22:05:03 OT (0D 4H 32M ago)
BarberaAssassin17/01/2020 22:12:02 OT (0D 4H 25M ago)
MessiAssassin17/01/2020 22:12:02 OT (0D 4H 25M ago)
HayleyAssassin17/01/2020 22:12:02 OT (0D 4H 25M ago)
DweepAssassin17/01/2020 22:12:02 OT (0D 4H 25M ago)
FrankAssassin17/01/2020 22:12:02 OT (0D 4H 25M ago)
ChipAssassin17/01/2020 22:12:02 OT (0D 4H 25M ago)
TemoAssassin17/01/2020 22:15:06 OT (0D 4H 21M ago)
KarmeAssassin17/01/2020 22:15:06 OT (0D 4H 21M ago)
EricAssassin17/01/2020 22:15:06 OT (0D 4H 21M ago)
PexterAssassin17/01/2020 22:15:06 OT (0D 4H 21M ago)
ExeAssassin17/01/2020 22:15:06 OT (0D 4H 21M ago)
GollumAssassin17/01/2020 22:15:06 OT (0D 4H 21M ago)
PebblesAssassin17/01/2020 22:15:06 OT (0D 4H 21M ago)
KingAssassin17/01/2020 22:18:05 OT (0D 4H 18M ago)
ArdahanAssassin17/01/2020 22:18:05 OT (0D 4H 18M ago)
ZohanAssassin17/01/2020 22:18:05 OT (0D 4H 18M ago)
AmrAssassin17/01/2020 22:18:05 OT (0D 4H 18M ago)
UnidentifiedAssassin17/01/2020 22:18:05 OT (0D 4H 18M ago)
BolubeyiAssassin17/01/2020 22:18:05 OT (0D 4H 18M ago)
NamelessAssassin17/01/2020 22:18:05 OT (0D 4H 18M ago)
GabrielAssassin17/01/2020 22:18:05 OT (0D 4H 18M ago)
GokovicAssassin17/01/2020 22:18:05 OT (0D 4H 18M ago)
EzgAssassin17/01/2020 22:18:05 OT (0D 4H 18M ago)
MmaAssassin17/01/2020 22:18:05 OT (0D 4H 18M ago)
FenomenAssassin17/01/2020 22:18:05 OT (0D 4H 18M ago)
TooghuisAssassin17/01/2020 22:26:03 OT (0D 4H 11M ago)
GrejuaAssassin17/01/2020 22:29:05 OT (0D 4H 7M ago)
BruceAssassin17/01/2020 22:29:05 OT (0D 4H 7M ago)
TsunamiAssassin17/01/2020 22:29:05 OT (0D 4H 7M ago)
DrowAssassin17/01/2020 22:29:05 OT (0D 4H 7M ago)
CarpaAssassin17/01/2020 22:29:05 OT (0D 4H 7M ago)
KillttAssassin17/01/2020 22:29:05 OT (0D 4H 7M ago)
TueurAssassin17/01/2020 22:29:05 OT (0D 4H 7M ago)
LehmannAssassin17/01/2020 22:33:02 OT (0D 4H 4M ago)
NebukadnezarAssassin17/01/2020 22:33:02 OT (0D 4H 4M ago)
BlessAssassin17/01/2020 22:33:02 OT (0D 4H 4M ago)
JarlAssassin17/01/2020 22:33:02 OT (0D 4H 4M ago)
NoraAssassin17/01/2020 22:39:05 OT (0D 3H 57M ago)
WilderigAssassin17/01/2020 22:39:05 OT (0D 3H 57M ago)
KartalAssassin17/01/2020 22:39:05 OT (0D 3H 57M ago)
OneAssassin17/01/2020 22:39:05 OT (0D 3H 57M ago)
SurdaAssassin17/01/2020 22:39:05 OT (0D 3H 57M ago)
BombermanAssassin17/01/2020 22:39:05 OT (0D 3H 57M ago)
SumotAssassin17/01/2020 22:39:05 OT (0D 3H 57M ago)
RomanAssassin17/01/2020 22:39:05 OT (0D 3H 57M ago)
TefeciAssassin17/01/2020 22:39:05 OT (0D 3H 57M ago)
MuriqiAssassin17/01/2020 22:39:05 OT (0D 3H 57M ago)
SalvatoreAssassin17/01/2020 22:39:05 OT (0D 3H 57M ago)
GakkosAssassin17/01/2020 22:39:05 OT (0D 3H 57M ago)
LucyAssassin17/01/2020 22:46:05 OT (0D 3H 50M ago)
MacyAssassin17/01/2020 22:46:05 OT (0D 3H 50M ago)
JugemAssassin17/01/2020 22:46:05 OT (0D 3H 50M ago)
SafinazAssassin17/01/2020 22:46:05 OT (0D 3H 50M ago)
YarenAssassin17/01/2020 22:46:05 OT (0D 3H 50M ago)
BabaAssassin17/01/2020 22:46:05 OT (0D 3H 50M ago)
TredAssassin17/01/2020 22:46:05 OT (0D 3H 50M ago)
JaceAssassin17/01/2020 22:50:02 OT (0D 3H 47M ago)
AnalogavengeAssassin17/01/2020 22:50:02 OT (0D 3H 47M ago)
FafattaraAssassin17/01/2020 22:50:02 OT (0D 3H 47M ago)
PetroAssassin17/01/2020 22:50:02 OT (0D 3H 47M ago)
MoriAssassin17/01/2020 22:50:02 OT (0D 3H 47M ago)
UniqueAssassin17/01/2020 22:50:02 OT (0D 3H 47M ago)
GlowwormAssassin17/01/2020 22:50:02 OT (0D 3H 47M ago)
EmmahewittAssassin17/01/2020 22:50:02 OT (0D 3H 47M ago)
KurtahAssassin17/01/2020 22:57:06 OT (0D 3H 39M ago)
RetyAssassin17/01/2020 22:57:06 OT (0D 3H 39M ago)
HasleonidasAssassin17/01/2020 22:57:06 OT (0D 3H 39M ago)
AnnabelleAssassin17/01/2020 22:57:06 OT (0D 3H 39M ago)
GgAssassin17/01/2020 22:57:06 OT (0D 3H 39M ago)
KaiserAssassin17/01/2020 22:57:06 OT (0D 3H 39M ago)
TalimarAssassin17/01/2020 22:57:06 OT (0D 3H 39M ago)
OnfireAssassin17/01/2020 22:57:06 OT (0D 3H 39M ago)
ZiyaAssassin17/01/2020 22:57:06 OT (0D 3H 39M ago)
ParisAssassin17/01/2020 23:05:05 OT (0D 3H 31M ago)
JedyAssassin17/01/2020 23:05:05 OT (0D 3H 31M ago)
AxlAssassin17/01/2020 23:05:05 OT (0D 3H 31M ago)
LasmarAssassin17/01/2020 23:05:05 OT (0D 3H 31M ago)
SalwadorAssassin17/01/2020 23:05:05 OT (0D 3H 31M ago)
HailieAssassin17/01/2020 23:05:05 OT (0D 3H 31M ago)
BozkurtAssassin17/01/2020 23:05:05 OT (0D 3H 31M ago)
ParliamentAssassin17/01/2020 23:05:05 OT (0D 3H 31M ago)
TantanaAssassin17/01/2020 23:05:05 OT (0D 3H 31M ago)
YviAssassin17/01/2020 23:05:05 OT (0D 3H 31M ago)
InboxAssassin17/01/2020 23:05:05 OT (0D 3H 31M ago)
RevivalAssassin17/01/2020 23:05:05 OT (0D 3H 31M ago)
DeepAssassin17/01/2020 23:05:05 OT (0D 3H 31M ago)
AxialAssassin17/01/2020 23:05:05 OT (0D 3H 31M ago)
DenaAssassin17/01/2020 23:05:05 OT (0D 3H 31M ago)
PiAssassin17/01/2020 23:05:05 OT (0D 3H 31M ago)
SiluetAssassin17/01/2020 23:05:05 OT (0D 3H 31M ago)
HuntAssassin17/01/2020 23:10:05 OT (0D 3H 26M ago)
BcAssassin17/01/2020 23:10:05 OT (0D 3H 26M ago)
DarkdeathmanAssassin17/01/2020 23:10:05 OT (0D 3H 26M ago)
MakarofluAssassin17/01/2020 23:10:05 OT (0D 3H 26M ago)
LuisAssassin17/01/2020 23:10:05 OT (0D 3H 26M ago)
BialemAssassin17/01/2020 23:10:05 OT (0D 3H 26M ago)
BathmanAssassin17/01/2020 23:10:05 OT (0D 3H 26M ago)
GeraltAssassin17/01/2020 23:10:05 OT (0D 3H 26M ago)
TokioAssassin17/01/2020 23:10:05 OT (0D 3H 26M ago)
KontofluAssassin17/01/2020 23:17:04 OT (0D 3H 20M ago)
NeeneeAssassin17/01/2020 23:17:04 OT (0D 3H 20M ago)
IjsjeetenAssassin17/01/2020 23:17:04 OT (0D 3H 20M ago)
GhostAssassin17/01/2020 23:17:04 OT (0D 3H 20M ago)
SergioAssassin17/01/2020 23:17:04 OT (0D 3H 20M ago)
GustaveAssassin17/01/2020 23:17:04 OT (0D 3H 20M ago)
FbiAssassin17/01/2020 23:17:04 OT (0D 3H 20M ago)
ArnAssassin17/01/2020 23:17:04 OT (0D 3H 20M ago)
MacakizAssassin17/01/2020 23:17:04 OT (0D 3H 20M ago)
OfficerAssassin17/01/2020 23:17:04 OT (0D 3H 20M ago)
HozhoAssassin17/01/2020 23:17:04 OT (0D 3H 20M ago)
FatihbulutAssassin17/01/2020 23:17:04 OT (0D 3H 20M ago)
NazgulAssassin17/01/2020 23:17:04 OT (0D 3H 20M ago)
AshAssassin17/01/2020 23:25:05 OT (0D 3H 11M ago)
TrixAssassin17/01/2020 23:25:05 OT (0D 3H 11M ago)
SeanAssassin17/01/2020 23:25:05 OT (0D 3H 11M ago)
KatzeAssassin17/01/2020 23:25:05 OT (0D 3H 11M ago)
AptiAssassin17/01/2020 23:25:05 OT (0D 3H 11M ago)
SeljukAssassin17/01/2020 23:31:03 OT (0D 3H 6M ago)
ChuchiAssassin17/01/2020 23:31:03 OT (0D 3H 6M ago)
FurianAssassin17/01/2020 23:31:03 OT (0D 3H 6M ago)
GabrieleAssassin17/01/2020 23:31:03 OT (0D 3H 6M ago)
JahsehAssassin17/01/2020 23:31:03 OT (0D 3H 6M ago)
KaganAssassin17/01/2020 23:31:03 OT (0D 3H 6M ago)
PricelessAssassin17/01/2020 23:31:03 OT (0D 3H 6M ago)
CatastrophicAssassin17/01/2020 23:31:03 OT (0D 3H 6M ago)
AntoninoAssassin17/01/2020 23:36:05 OT (0D 3H 0M ago)
DodoAssassin17/01/2020 23:36:05 OT (0D 3H 0M ago)
LurtzAssassin17/01/2020 23:36:05 OT (0D 3H 0M ago)
LuckystrikeAssassin17/01/2020 23:40:05 OT (0D 2H 56M ago)
BlackbabaAssassin17/01/2020 23:40:05 OT (0D 2H 56M ago)
FyodorAssassin17/01/2020 23:40:05 OT (0D 2H 56M ago)
BohannonAssassin17/01/2020 23:40:05 OT (0D 2H 56M ago)
MethosAssassin17/01/2020 23:45:04 OT (0D 2H 52M ago)
HitsugayaAssassin17/01/2020 23:45:04 OT (0D 2H 52M ago)
CocainAssassin17/01/2020 23:45:04 OT (0D 2H 52M ago)
YankeeAssassin17/01/2020 23:45:04 OT (0D 2H 52M ago)
DarknessAssassin17/01/2020 23:45:04 OT (0D 2H 52M ago)
StansfieldAssassin17/01/2020 23:45:04 OT (0D 2H 52M ago)
ScofieldAssassin17/01/2020 23:45:04 OT (0D 2H 52M ago)
RagnarAssassin17/01/2020 23:45:04 OT (0D 2H 52M ago)
PqliarAssassin17/01/2020 23:45:04 OT (0D 2H 52M ago)
AgoraAssassin17/01/2020 23:50:03 OT (0D 2H 47M ago)
AvengerAssassin17/01/2020 23:50:03 OT (0D 2H 47M ago)
ShakalakaAssassin17/01/2020 23:50:03 OT (0D 2H 47M ago)
MauserAssassin17/01/2020 23:50:03 OT (0D 2H 47M ago)
BonanzaAssassin17/01/2020 23:50:03 OT (0D 2H 47M ago)
SatyrAssassin17/01/2020 23:50:03 OT (0D 2H 47M ago)
MieremetAssassin17/01/2020 23:55:05 OT (0D 2H 41M ago)
ChappieAssassin17/01/2020 23:55:05 OT (0D 2H 41M ago)
LoloAssassin17/01/2020 23:55:05 OT (0D 2H 41M ago)
GermiyanAssassin17/01/2020 23:55:05 OT (0D 2H 41M ago)
BumitikAssassin17/01/2020 23:55:05 OT (0D 2H 41M ago)
MartialAssassin17/01/2020 23:55:05 OT (0D 2H 41M ago)
SingtoAssassin17/01/2020 23:55:05 OT (0D 2H 41M ago)
GaiatoAssassin17/01/2020 23:55:05 OT (0D 2H 41M ago)
YildirimAssassin18/01/2020 00:02:03 OT (0D 2H 35M ago)
MttAssassin18/01/2020 00:05:05 OT (0D 2H 31M ago)
VlinderinAssassin18/01/2020 00:05:05 OT (0D 2H 31M ago)
LippinAssassin18/01/2020 00:05:05 OT (0D 2H 31M ago)
DanAssassin18/01/2020 00:05:05 OT (0D 2H 31M ago)
JltAssassin18/01/2020 00:05:05 OT (0D 2H 31M ago)
FaithAssassin18/01/2020 00:05:05 OT (0D 2H 31M ago)
CohenAssassin18/01/2020 00:05:05 OT (0D 2H 31M ago)
DugmeciAssassin18/01/2020 00:05:05 OT (0D 2H 31M ago)
SixAssassin18/01/2020 00:05:05 OT (0D 2H 31M ago)
VindictaAssassin18/01/2020 00:05:05 OT (0D 2H 31M ago)
BushmillsAssassin18/01/2020 00:05:05 OT (0D 2H 31M ago)
CavusAssassin18/01/2020 00:11:05 OT (0D 2H 25M ago)
DumenciAssassin18/01/2020 00:11:05 OT (0D 2H 25M ago)
TerminatorAssassin18/01/2020 00:11:05 OT (0D 2H 25M ago)
KronosAssassin18/01/2020 00:11:05 OT (0D 2H 25M ago)
BoldpilotAssassin18/01/2020 00:11:05 OT (0D 2H 25M ago)
CiroAssassin18/01/2020 00:15:05 OT (0D 2H 21M ago)
ScarphaseAssassin18/01/2020 00:15:05 OT (0D 2H 21M ago)
GuntherAssassin18/01/2020 00:15:05 OT (0D 2H 21M ago)
ThewhispererAssassin18/01/2020 00:15:05 OT (0D 2H 21M ago)
HappyAssassin18/01/2020 00:15:05 OT (0D 2H 21M ago)
DelangeloAssassin18/01/2020 00:15:05 OT (0D 2H 21M ago)
PrisonAssassin18/01/2020 00:15:05 OT (0D 2H 21M ago)
EdnaAssassin18/01/2020 00:20:05 OT (0D 2H 16M ago)
BruqlioneAssassin18/01/2020 00:20:05 OT (0D 2H 16M ago)
FirstAssassin18/01/2020 00:20:05 OT (0D 2H 16M ago)
GiselleAssassin18/01/2020 00:23:05 OT (0D 2H 13M ago)
BernardoAssassin18/01/2020 00:23:05 OT (0D 2H 13M ago)
PacoAssassin18/01/2020 00:23:05 OT (0D 2H 13M ago)
PicpustAssassin18/01/2020 00:23:05 OT (0D 2H 13M ago)
FranjoAssassin18/01/2020 00:23:05 OT (0D 2H 13M ago)
DozAssassin18/01/2020 00:23:05 OT (0D 2H 13M ago)
NedAssassin18/01/2020 00:23:05 OT (0D 2H 13M ago)
SnorlaxAssassin18/01/2020 00:28:05 OT (0D 2H 8M ago)
TheraAssassin18/01/2020 00:28:05 OT (0D 2H 8M ago)
RibellaAssassin18/01/2020 00:28:05 OT (0D 2H 8M ago)
KaralhoAssassin18/01/2020 00:28:05 OT (0D 2H 8M ago)
KaiAssassin18/01/2020 00:28:05 OT (0D 2H 8M ago)
AlenAssassin18/01/2020 00:32:05 OT (0D 2H 4M ago)
HivobatAssassin18/01/2020 00:32:05 OT (0D 2H 4M ago)
GowAssassin18/01/2020 00:32:05 OT (0D 2H 4M ago)
UnboundAssassin18/01/2020 00:32:05 OT (0D 2H 4M ago)
VioladorAssassin18/01/2020 00:32:05 OT (0D 2H 4M ago)
VanderlindeAssassin18/01/2020 00:32:05 OT (0D 2H 4M ago)
PinkiAssassin18/01/2020 00:38:05 OT (0D 1H 58M ago)
HellfishAssassin18/01/2020 00:38:05 OT (0D 1H 58M ago)
MariaAssassin18/01/2020 00:38:05 OT (0D 1H 58M ago)
RolloAssassin18/01/2020 00:38:05 OT (0D 1H 58M ago)
MeerkatAssassin18/01/2020 00:38:05 OT (0D 1H 58M ago)
AgerAssassin18/01/2020 00:38:05 OT (0D 1H 58M ago)
KazuzaAssassin18/01/2020 00:42:03 OT (0D 1H 55M ago)
MaatjeAssassin18/01/2020 00:42:03 OT (0D 1H 55M ago)
MiyakoAssassin18/01/2020 00:42:03 OT (0D 1H 55M ago)
RexAssassin18/01/2020 00:42:03 OT (0D 1H 55M ago)
MalcolmxAssassin18/01/2020 00:42:03 OT (0D 1H 55M ago)
TombombadilAssassin18/01/2020 00:46:05 OT (0D 1H 50M ago)
GrisAssassin18/01/2020 00:46:05 OT (0D 1H 50M ago)
CameusAssassin18/01/2020 00:46:05 OT (0D 1H 50M ago)
BrabusAssassin18/01/2020 00:46:05 OT (0D 1H 50M ago)
KingkongAssassin18/01/2020 00:46:05 OT (0D 1H 50M ago)
RowAssassin18/01/2020 00:46:05 OT (0D 1H 50M ago)
KatliamAssassin18/01/2020 00:46:05 OT (0D 1H 50M ago)
DoctorevilAssassin18/01/2020 00:46:05 OT (0D 1H 50M ago)
GranjolaAssassin18/01/2020 00:53:05 OT (0D 1H 43M ago)
HellraiserAssassin18/01/2020 00:53:05 OT (0D 1H 43M ago)
SidAssassin18/01/2020 00:53:05 OT (0D 1H 43M ago)
TitaniumAssassin18/01/2020 00:53:05 OT (0D 1H 43M ago)
GuyAssassin18/01/2020 00:53:05 OT (0D 1H 43M ago)
BaddmanAssassin18/01/2020 00:53:05 OT (0D 1H 43M ago)
CastielAssassin18/01/2020 00:57:02 OT (0D 1H 40M ago)
TaliaAssassin18/01/2020 00:57:02 OT (0D 1H 40M ago)
JasperAssassin18/01/2020 00:57:02 OT (0D 1H 40M ago)
SerafAssassin18/01/2020 00:57:02 OT (0D 1H 40M ago)
HakkiAssassin18/01/2020 00:57:02 OT (0D 1H 40M ago)
CheetahAssassin18/01/2020 00:57:02 OT (0D 1H 40M ago)
TatarrAssassin18/01/2020 01:01:02 OT (0D 1H 36M ago)
JokerAssassin18/01/2020 01:01:02 OT (0D 1H 36M ago)
HermesAssassin18/01/2020 01:01:02 OT (0D 1H 36M ago)
KodasiliAssassin18/01/2020 01:01:02 OT (0D 1H 36M ago)
KabasakalAssassin18/01/2020 01:01:02 OT (0D 1H 36M ago)
HammerAssassin18/01/2020 01:01:02 OT (0D 1H 36M ago)
GorgiAssassin18/01/2020 01:07:05 OT (0D 1H 29M ago)
BunkerAssassin18/01/2020 01:07:05 OT (0D 1H 29M ago)
KosterAssassin18/01/2020 01:07:05 OT (0D 1H 29M ago)
AbiAssassin18/01/2020 01:07:05 OT (0D 1H 29M ago)
ProxyAssassin18/01/2020 01:07:05 OT (0D 1H 29M ago)
WolfAssassin18/01/2020 01:07:05 OT (0D 1H 29M ago)
BiertjuhAssassin18/01/2020 01:07:05 OT (0D 1H 29M ago)
HabitusAssassin18/01/2020 01:07:05 OT (0D 1H 29M ago)
LuciferAssassin18/01/2020 01:07:05 OT (0D 1H 29M ago)
GionniAssassin18/01/2020 01:14:06 OT (0D 1H 22M ago)
JayshelbyAssassin18/01/2020 01:14:06 OT (0D 1H 22M ago)
CataAssassin18/01/2020 01:14:06 OT (0D 1H 22M ago)
HysteriaAssassin18/01/2020 01:14:06 OT (0D 1H 22M ago)
StarkAssassin18/01/2020 01:14:06 OT (0D 1H 22M ago)
MinipecheAssassin18/01/2020 01:20:05 OT (0D 1H 16M ago)
KoalaAssassin18/01/2020 01:20:05 OT (0D 1H 16M ago)
EkmekAssassin18/01/2020 01:20:05 OT (0D 1H 16M ago)
ZebralienzAssassin18/01/2020 01:20:05 OT (0D 1H 16M ago)
AzatbabaAssassin18/01/2020 01:20:05 OT (0D 1H 16M ago)
HarveyAssassin18/01/2020 01:20:05 OT (0D 1H 16M ago)
BeardedconAssassin18/01/2020 01:23:05 OT (0D 1H 13M ago)
MelanieAssassin18/01/2020 01:23:05 OT (0D 1H 13M ago)
CarlitoAssassin18/01/2020 01:23:05 OT (0D 1H 13M ago)
TriggAssassin18/01/2020 01:23:05 OT (0D 1H 13M ago)
EnjoyAssassin18/01/2020 01:23:05 OT (0D 1H 13M ago)
HomerAssassin18/01/2020 01:23:05 OT (0D 1H 13M ago)
ElcomandanteAssassin18/01/2020 01:23:05 OT (0D 1H 13M ago)
MetherpeusAssassin18/01/2020 01:23:05 OT (0D 1H 13M ago)
AllenAssassin18/01/2020 01:23:05 OT (0D 1H 13M ago)
PiccoloAssassin18/01/2020 01:29:03 OT (0D 1H 8M ago)
KralAssassin18/01/2020 01:29:03 OT (0D 1H 8M ago)
XiaoAssassin18/01/2020 01:29:03 OT (0D 1H 8M ago)
YeterAssassin18/01/2020 01:29:03 OT (0D 1H 8M ago)
RufiAssassin18/01/2020 01:29:03 OT (0D 1H 8M ago)
SouthsideboyAssassin18/01/2020 01:33:04 OT (0D 1H 4M ago)
GimliAssassin18/01/2020 01:33:04 OT (0D 1H 4M ago)
TigerAssassin18/01/2020 01:33:04 OT (0D 1H 4M ago)
SwaggerAssassin18/01/2020 01:33:04 OT (0D 1H 4M ago)
StingAssassin18/01/2020 01:33:04 OT (0D 1H 4M ago)
TazAssassin18/01/2020 01:33:04 OT (0D 1H 4M ago)
BrumyAssassin18/01/2020 01:33:04 OT (0D 1H 4M ago)
DoneAssassin18/01/2020 01:33:04 OT (0D 1H 4M ago)
GandalfAssassin18/01/2020 01:33:04 OT (0D 1H 4M ago)
XcodeAssassin18/01/2020 01:38:03 OT (0D 0H 59M ago)
CujaAssassin18/01/2020 01:38:03 OT (0D 0H 59M ago)
SantafeAssassin18/01/2020 01:38:03 OT (0D 0H 59M ago)
MuleroAssassin18/01/2020 01:43:02 OT (0D 0H 54M ago)
MiguelAssassin18/01/2020 01:43:02 OT (0D 0H 54M ago)
ClumsyAssassin18/01/2020 01:43:02 OT (0D 0H 54M ago)
PeaceAssassin18/01/2020 01:43:02 OT (0D 0H 54M ago)
AlphaAssassin18/01/2020 01:48:03 OT (0D 0H 49M ago)
WitcherAssassin18/01/2020 01:48:03 OT (0D 0H 49M ago)
EnlilAssassin18/01/2020 01:48:03 OT (0D 0H 49M ago)
RingAssassin18/01/2020 01:48:03 OT (0D 0H 49M ago)
MokawwadAssassin18/01/2020 01:48:03 OT (0D 0H 49M ago)
HardAssassin18/01/2020 01:48:03 OT (0D 0H 49M ago)
BomberwomanAssassin18/01/2020 01:48:03 OT (0D 0H 49M ago)
DanielAssassin18/01/2020 01:48:03 OT (0D 0H 49M ago)
RyuAssassin18/01/2020 01:54:05 OT (0D 0H 42M ago)
SoAssassin18/01/2020 01:54:05 OT (0D 0H 42M ago)
RaidenAssassin18/01/2020 01:54:05 OT (0D 0H 42M ago)
FakerAssassin18/01/2020 01:54:05 OT (0D 0H 42M ago)
LacosteAssassin18/01/2020 01:54:05 OT (0D 0H 42M ago)
CanihAssassin18/01/2020 01:54:05 OT (0D 0H 42M ago)
DumbledoreAssassin18/01/2020 01:54:05 OT (0D 0H 42M ago)
GuderianAssassin18/01/2020 01:54:05 OT (0D 0H 42M ago)
CakirAssassin18/01/2020 01:58:03 OT (0D 0H 39M ago)
VaretasAssassin18/01/2020 01:58:03 OT (0D 0H 39M ago)
TommyAssassin18/01/2020 01:58:03 OT (0D 0H 39M ago)
AsaffAssassin18/01/2020 01:58:03 OT (0D 0H 39M ago)
SukujAssassin18/01/2020 01:58:03 OT (0D 0H 39M ago)
JanetAssassin18/01/2020 01:58:03 OT (0D 0H 39M ago)
FreshAssassin18/01/2020 01:58:03 OT (0D 0H 39M ago)
DisastrousAssassin18/01/2020 01:58:03 OT (0D 0H 39M ago)
BambamAssassin18/01/2020 01:58:03 OT (0D 0H 39M ago)
BugattiAssassin18/01/2020 01:58:03 OT (0D 0H 39M ago)
SubutayAssassin18/01/2020 01:58:03 OT (0D 0H 39M ago)
ElevenAssassin18/01/2020 01:58:03 OT (0D 0H 39M ago)
LunaAssassin18/01/2020 01:58:03 OT (0D 0H 39M ago)
ClemAssassin18/01/2020 01:58:03 OT (0D 0H 39M ago)
BismahAssassin18/01/2020 01:58:03 OT (0D 0H 39M ago)
IsildurAssassin18/01/2020 01:58:03 OT (0D 0H 39M ago)
GoseigenAssassin18/01/2020 02:05:05 OT (0D 0H 31M ago)
BeckhamAssassin18/01/2020 02:05:05 OT (0D 0H 31M ago)
WeinsteinAssassin18/01/2020 02:05:05 OT (0D 0H 31M ago)
HyenaAssassin18/01/2020 02:05:05 OT (0D 0H 31M ago)
RoarAssassin18/01/2020 02:05:05 OT (0D 0H 31M ago)
ScalettaAssassin18/01/2020 02:05:05 OT (0D 0H 31M ago)
PiperAssassin18/01/2020 02:05:05 OT (0D 0H 31M ago)
SheilaaAssassin18/01/2020 02:10:04 OT (0D 0H 27M ago)
AvoAssassin18/01/2020 02:10:04 OT (0D 0H 27M ago)
ViseAssassin18/01/2020 02:10:04 OT (0D 0H 27M ago)
GaladrielAssassin18/01/2020 02:10:04 OT (0D 0H 27M ago)
GaravelAssassin18/01/2020 02:10:04 OT (0D 0H 27M ago)
VikingAssassin18/01/2020 02:10:04 OT (0D 0H 27M ago)
BustwiceAssassin18/01/2020 02:10:04 OT (0D 0H 27M ago)
TomazacreAssassin18/01/2020 02:10:04 OT (0D 0H 27M ago)
BattistaAssassin18/01/2020 02:10:04 OT (0D 0H 27M ago)
KarmiAssassin18/01/2020 02:10:04 OT (0D 0H 27M ago)
GranitAssassin18/01/2020 02:15:03 OT (0D 0H 22M ago)
MustangAssassin18/01/2020 02:15:03 OT (0D 0H 22M ago)
RebellionAssassin18/01/2020 02:15:03 OT (0D 0H 22M ago)
MrbedAssassin18/01/2020 02:15:03 OT (0D 0H 22M ago)
SevenAssassin18/01/2020 02:15:03 OT (0D 0H 22M ago)
YzxAssassin18/01/2020 02:20:05 OT (0D 0H 16M ago)
LucianAssassin18/01/2020 02:20:05 OT (0D 0H 16M ago)
KonaAssassin18/01/2020 02:20:05 OT (0D 0H 16M ago)
AshleyAssassin18/01/2020 02:20:05 OT (0D 0H 16M ago)
AeryAssassin18/01/2020 02:20:05 OT (0D 0H 16M ago)
TuctucAssassin18/01/2020 02:20:05 OT (0D 0H 16M ago)
AmbrosioAssassin18/01/2020 02:20:05 OT (0D 0H 16M ago)
LimboAssassin18/01/2020 02:20:05 OT (0D 0H 16M ago)
KolyaAssassin18/01/2020 02:20:05 OT (0D 0H 16M ago)
DonitzAssassin18/01/2020 02:20:05 OT (0D 0H 16M ago)
KyzaAssassin18/01/2020 02:20:05 OT (0D 0H 16M ago)
SamweisAssassin18/01/2020 02:20:05 OT (0D 0H 16M ago)
TysonAssassin18/01/2020 02:20:05 OT (0D 0H 16M ago)
BrutalAssassin18/01/2020 02:20:05 OT (0D 0H 16M ago)
KlcAssassin18/01/2020 02:20:05 OT (0D 0H 16M ago)
FrancescoAssassin18/01/2020 02:20:05 OT (0D 0H 16M ago)
ChamberAssassin18/01/2020 02:20:05 OT (0D 0H 16M ago)
MyroAssassin18/01/2020 02:27:05 OT (0D 0H 9M ago)
AlabaAssassin18/01/2020 02:27:05 OT (0D 0H 9M ago)
AquaAssassin18/01/2020 02:27:05 OT (0D 0H 9M ago)
MichaelAssassin18/01/2020 02:27:05 OT (0D 0H 9M ago)
LukeAssassin18/01/2020 02:27:05 OT (0D 0H 9M ago)
FentyAssassin18/01/2020 02:27:05 OT (0D 0H 9M ago)
EnkiAssassin18/01/2020 02:27:05 OT (0D 0H 9M ago)
BotAssassin18/01/2020 02:31:04 OT (0D 0H 6M ago)
PlatinumAssassin18/01/2020 02:31:04 OT (0D 0H 6M ago)
AceAssassin18/01/2020 02:31:04 OT (0D 0H 6M ago)
ImmerwahrAssassin18/01/2020 02:31:04 OT (0D 0H 6M ago)
BirminghamAssassin18/01/2020 02:31:04 OT (0D 0H 6M ago)
JariAssassin18/01/2020 02:31:04 OT (0D 0H 6M ago)
MisanthropeAssassin18/01/2020 02:31:04 OT (0D 0H 6M ago)
MarcosAssassin18/01/2020 02:31:04 OT (0D 0H 6M ago)
CorleoneAssassin18/01/2020 02:31:04 OT (0D 0H 6M ago)
CotrinaAssassin18/01/2020 02:31:04 OT (0D 0H 6M ago)
ObliviousAssassin18/01/2020 02:36:03 OT (0D 0H 1M ago)
DamicuAssassin18/01/2020 02:36:03 OT (0D 0H 1M ago)
HicaAssassin18/01/2020 02:36:03 OT (0D 0H 1M ago)
NoproblemAssassin18/01/2020 02:36:03 OT (0D 0H 1M ago)
WindohAssassin18/01/2020 02:36:03 OT (0D 0H 1M ago)
KatakuriAssassin18/01/2020 02:36:03 OT (0D 0H 1M ago)
RoxAssassin18/01/2020 02:36:03 OT (0D 0H 1M ago)
SankaraAssassin18/01/2020 02:36:03 OT (0D 0H 1M ago)
CanalydAssassin18/01/2020 02:36:03 OT (0D 0H 1M ago)
RedAssassin18/01/2020 02:36:03 OT (0D 0H 1M ago)
SugarAssassin18/01/2020 02:36:03 OT (0D 0H 1M ago)
SlimeAssassin18/01/2020 02:36:03 OT (0D 0H 1M ago)
GierlucasAssassin18/01/2020 02:36:03 OT (0D 0H 1M ago)
PhemmeAssassin18/01/2020 02:36:03 OT (0D 0H 1M ago)
HaydoAssassin18/01/2020 02:36:03 OT (0D 0H 1M ago)
OrkaAssassin18/01/2020 02:36:03 OT (0D 0H 1M ago)
GunAssassin18/01/2020 02:36:03 OT (0D 0H 1M ago)
OsmoseAssassin18/01/2020 02:36:03 OT (0D 0H 1M ago)
VanityAssassin18/01/2020 02:36:03 OT (0D 0H 1M ago)
RoccetmanAssassin18/01/2020 02:36:03 OT (0D 0H 1M ago)
ZeynepAssassin18/01/2020 02:36:03 OT (0D 0H 1M ago)
DoparaAssassin18/01/2020 02:36:03 OT (0D 0H 1M ago)
SalsaAssassin18/01/2020 02:36:03 OT (0D 0H 1M ago)
FerzanAssassin18/01/2020 02:36:03 OT (0D 0H 1M ago)
AlcalinaAssassin18/01/2020 02:36:03 OT (0D 0H 1M ago)
ElpelucheAssassin18/01/2020 02:36:03 OT (0D 0H 1M ago)
DerpcellAssassin18/01/2020 02:36:03 OT (0D 0H 1M ago)
CharcoalsAssassin18/01/2020 02:36:03 OT (0D 0H 1M ago)
OnderAssassin18/01/2020 02:36:03 OT (0D 0H 1M ago)
KotaAssassin18/01/2020 02:36:03 OT (0D 0H 1M ago)
LwAssassin18/01/2020 02:36:03 OT (0D 0H 1M ago)
DaddyAssassin18/01/2020 02:36:03 OT (0D 0H 1M ago)
ZarAssassin18/01/2020 02:36:03 OT (0D 0H 1M ago)
ElmariachiAssassin18/01/2020 02:36:03 OT (0D 0H 1M ago)
MinimeAssassin18/01/2020 02:36:03 OT (0D 0H 1M ago)
PaakAssassin18/01/2020 02:36:03 OT (0D 0H 1M ago)
CukAssassin18/01/2020 02:36:03 OT (0D 0H 1M ago)
SmokeAssassin18/01/2020 02:36:03 OT (0D 0H 1M ago)
GangstaAssassin18/01/2020 02:36:03 OT (0D 0H 1M ago)
GustavoAssassin18/01/2020 02:36:03 OT (0D 0H 1M ago)
EmobliareAssassin18/01/2020 02:36:03 OT (0D 0H 1M ago)
DoormanAssassin18/01/2020 02:36:03 OT (0D 0H 1M ago)
CfsixAssassin18/01/2020 02:36:03 OT (0D 0H 1M ago)
AraratAssassin18/01/2020 02:36:03 OT (0D 0H 1M ago)
EmhyrAssassin18/01/2020 02:36:03 OT (0D 0H 1M ago)
ElrondAssassin18/01/2020 02:36:03 OT (0D 0H 1M ago)
MikeAssassin18/01/2020 02:36:03 OT (0D 0H 1M ago)
MasihAssassin18/01/2020 02:36:03 OT (0D 0H 1M ago)
BerbigaoAssassin18/01/2020 02:36:03 OT (0D 0H 1M ago)
WarAssassin18/01/2020 02:36:03 OT (0D 0H 1M ago)
ChemistAssassin18/01/2020 02:36:03 OT (0D 0H 1M ago)
StanAssassin18/01/2020 02:36:03 OT (0D 0H 1M ago)
SunriseAssassin18/01/2020 02:36:03 OT (0D 0H 1M ago)
KvotheAssassin18/01/2020 02:36:03 OT (0D 0H 1M ago)
MokistabaiAssassin18/01/2020 02:36:03 OT (0D 0H 1M ago)
ParodyAssassin18/01/2020 02:36:03 OT (0D 0H 1M ago)
NozelAssassin18/01/2020 02:36:03 OT (0D 0H 1M ago)
PriscillaAssassin18/01/2020 02:36:03 OT (0D 0H 1M ago)
BodofffAssassin18/01/2020 02:36:03 OT (0D 0H 1M ago)
ObsessionAssassin18/01/2020 02:36:03 OT (0D 0H 1M ago)
BendijoAssassin18/01/2020 02:36:03 OT (0D 0H 1M ago)
StyxAssassin18/01/2020 02:36:03 OT (0D 0H 1M ago)
CervezaAssassin18/01/2020 02:36:03 OT (0D 0H 1M ago)
HighvoltageAssassin18/01/2020 02:36:03 OT (0D 0H 1M ago)
UtuAssassin18/01/2020 02:36:03 OT (0D 0H 1M ago)
LeonidasAssassin18/01/2020 02:36:03 OT (0D 0H 1M ago)
FranchettiAssassin18/01/2020 02:36:03 OT (0D 0H 1M ago)
LegolasAssassin18/01/2020 02:36:03 OT (0D 0H 1M ago)
DjokovicAssassin18/01/2020 02:36:03 OT (0D 0H 1M ago)
LegendaryAssassin18/01/2020 02:36:03 OT (0D 0H 1M ago)
FrayAssassin18/01/2020 02:36:03 OT (0D 0H 1M ago)
AragornAssassin18/01/2020 02:36:03 OT (0D 0H 1M ago)